Time,TemperatureF,DewpointF,PressureIn,WindDirection,WindDirectionDegrees,WindSpeedMPH,WindSpeedGustMPH,Humidity,HourlyPrecipIn,Conditions,Clouds,dailyrainin,SoftwareType,DateUTC
2013-07-02 00:00:00,69.4,69.1,30.10,NE,48,0.0,0.0,99,0.00,,SCT070,0.00,VWS V14.01,2013-07-02 04:00:00,
2013-07-02 00:01:00,69.4,69.1,30.10,NE,48,0.0,0.0,99,0.00,,-RA,0.00,VWS V14.01,2013-07-02 04:01:00,
2013-07-02 00:02:00,69.4,69.1,30.10,NE,48,0.0,0.0,99,0.00,,-RA,0.00,VWS V14.01,2013-07-02 04:02:00,
2013-07-02 00:05:00,69.4,69.1,30.10,NE,48,0.0,0.0,99,0.00,,SCT070,0.00,VWS V14.01,2013-07-02 04:05:00,
2013-07-02 00:07:00,69.4,69.1,30.10,NE,48,0.0,0.0,99,0.00,,-RA,0.00,VWS V14.01,2013-07-02 04:07:00,
2013-07-02 00:10:00,69.4,69.1,30.10,NE,48,0.0,0.0,99,0.00,,SCT070,0.00,VWS V14.01,2013-07-02 04:10:00,
2013-07-02 00:12:00,69.4,69.1,30.10,NE,48,0.0,0.0,99,0.00,,,0.00,VWS V14.01,2013-07-02 04:12:00,
2013-07-02 00:15:00,69.4,69.1,30.10,NE,48,0.0,0.0,99,0.00,,SCT070,0.00,VWS V14.01,2013-07-02 04:15:00,
2013-07-02 00:17:00,69.4,69.1,30.10,NE,48,0.0,0.0,99,0.00,,,0.00,VWS V14.01,2013-07-02 04:17:00,
2013-07-02 00:20:00,69.4,69.1,30.10,NE,48,0.0,0.0,99,0.00,,SCT070,0.00,VWS V14.01,2013-07-02 04:20:00,
2013-07-02 00:22:00,69.4,69.1,30.10,NE,48,0.0,0.0,99,0.00,,,0.00,VWS V14.01,2013-07-02 04:22:00,
2013-07-02 00:25:00,69.4,69.1,30.10,NE,48,0.0,1.0,99,0.00,,SCT070,0.00,VWS V14.01,2013-07-02 04:25:00,
2013-07-02 00:27:00,69.2,68.9,30.10,NE,48,0.0,0.0,99,0.00,,,0.00,VWS V14.01,2013-07-02 04:27:00,
2013-07-02 00:30:00,69.0,68.7,30.10,NNE,26,0.0,1.0,99,0.00,,SCT070,0.00,VWS V14.01,2013-07-02 04:30:00,
2013-07-02 00:32:00,68.9,68.6,30.10,NNE,26,0.0,1.0,99,0.00,,,0.00,VWS V14.01,2013-07-02 04:32:00,
2013-07-02 00:35:00,68.9,68.6,30.10,NE,38,1.0,1.0,99,0.00,,SCT070,0.00,VWS V14.01,2013-07-02 04:35:00,
2013-07-02 00:37:00,68.7,68.4,30.10,NE,38,0.0,1.0,99,0.00,,,0.00,VWS V14.01,2013-07-02 04:37:00,
2013-07-02 00:40:00,68.7,68.4,30.10,NE,38,0.0,1.0,99,0.00,,SCT070,0.00,VWS V14.01,2013-07-02 04:40:00,
2013-07-02 00:42:00,68.5,68.2,30.10,NE,38,0.0,0.0,99,0.00,,,0.00,VWS V14.01,2013-07-02 04:42:00,
2013-07-02 00:45:00,68.5,68.2,30.10,NE,38,0.0,2.0,99,0.00,,SCT070,0.00,VWS V14.01,2013-07-02 04:45:00,
2013-07-02 00:47:00,68.5,68.2,30.10,NE,49,0.0,0.0,99,0.00,,,0.00,VWS V14.01,2013-07-02 04:47:00,
2013-07-02 00:50:00,68.5,68.2,30.10,NE,49,0.0,0.0,99,0.00,,SCT070,0.00,VWS V14.01,2013-07-02 04:50:00,
2013-07-02 00:52:00,68.4,68.1,30.10,NE,49,0.0,0.0,99,0.00,,,0.00,VWS V14.01,2013-07-02 04:52:00,
2013-07-02 00:55:00,68.4,68.1,30.10,NE,49,0.0,0.0,99,0.00,,SCT070,0.00,VWS V14.01,2013-07-02 04:55:00,
2013-07-02 00:57:00,68.4,68.1,30.10,NE,49,0.0,1.0,99,0.00,,,0.00,VWS V14.01,2013-07-02 04:57:00,
2013-07-02 01:00:00,68.4,68.1,30.10,NE,49,0.0,1.0,99,0.00,,SCT070,0.00,VWS V14.01,2013-07-02 05:00:00,
2013-07-02 01:02:00,68.4,68.1,30.10,NE,38,0.0,2.0,99,0.00,,,0.00,VWS V14.01,2013-07-02 05:02:00,
2013-07-02 01:05:00,68.4,68.1,30.10,NE,46,0.0,2.0,99,0.00,,SCT070,0.00,VWS V14.01,2013-07-02 05:05:00,
2013-07-02 01:07:00,68.2,67.9,30.10,NE,42,1.0,4.0,99,0.00,,,0.00,VWS V14.01,2013-07-02 05:07:00,
2013-07-02 01:10:00,68.2,67.9,30.10,ENE,69,1.0,4.0,99,0.00,,SCT070,0.00,VWS V14.01,2013-07-02 05:10:00,
2013-07-02 01:12:00,68.2,67.9,30.10,ENE,73,0.0,1.0,99,0.00,,,0.00,VWS V14.01,2013-07-02 05:12:00,
2013-07-02 01:15:00,68.0,67.7,30.10,NNE,17,0.0,1.0,99,0.00,,SCT070,0.00,VWS V14.01,2013-07-02 05:15:00,
2013-07-02 01:17:00,68.0,67.7,30.10,East,98,0.0,1.0,99,0.00,,,0.00,VWS V14.01,2013-07-02 05:17:00,
2013-07-02 01:20:00,68.0,67.7,30.10,East,98,1.0,1.0,99,0.00,,SCT070,0.00,VWS V14.01,2013-07-02 05:20:00,
2013-07-02 01:22:00,68.0,67.7,30.10,NNE,29,0.0,1.0,99,0.00,,,0.00,VWS V14.01,2013-07-02 05:22:00,
2013-07-02 01:25:00,68.0,67.7,30.10,NE,41,0.0,1.0,99,0.00,,SCT070,0.00,VWS V14.01,2013-07-02 05:25:00,
2013-07-02 01:27:00,67.9,67.6,30.10,NNE,17,0.0,2.0,99,0.00,,,0.00,VWS V14.01,2013-07-02 05:27:00,
2013-07-02 01:30:00,67.9,67.9,30.09,NNE,17,0.0,2.0,100,0.00,,SCT070,0.00,VWS V14.01,2013-07-02 05:30:00,
2013-07-02 01:32:00,67.9,67.9,30.09,North,350,2.0,2.0,100,0.00,,,0.00,VWS V14.01,2013-07-02 05:32:00,
2013-07-02 01:35:00,67.9,67.9,30.09,North,350,0.0,2.0,100,0.00,,SCT070,0.00,VWS V14.01,2013-07-02 05:35:00,
2013-07-02 01:37:00,67.9,67.9,30.09,East,86,0.0,2.0,100,0.00,,,0.00,VWS V14.01,2013-07-02 05:37:00,
2013-07-02 01:40:00,67.9,67.9,30.09,East,84,0.0,2.0,100,0.00,,SCT070,0.00,VWS V14.01,2013-07-02 05:40:00,
2013-07-02 01:42:00,67.9,67.9,30.09,ENE,76,0.0,2.0,100,0.01,,,0.01,VWS V14.01,2013-07-02 05:42:00,
2013-07-02 01:45:00,67.7,67.7,30.10,ENE,60,0.0,2.0,100,0.01,,SCT070,0.01,VWS V14.01,2013-07-02 05:45:00,
2013-07-02 01:47:00,67.7,67.7,30.10,NE,56,3.0,3.0,100,0.01,,,0.01,VWS V14.01,2013-07-02 05:47:00,
2013-07-02 01:50:00,67.7,67.7,30.10,NE,52,0.0,5.0,100,0.01,,SCT070,0.01,VWS V14.01,2013-07-02 05:50:00,
2013-07-02 01:52:00,67.7,67.7,30.10,ENE,63,0.0,1.0,100,0.01,,,0.01,VWS V14.01,2013-07-02 05:52:00,
2013-07-02 01:55:00,67.7,67.7,30.10,NNE,26,0.0,4.0,100,0.01,,SCT070,0.01,VWS V14.01,2013-07-02 05:55:00,
2013-07-02 01:57:00,67.7,67.7,30.10,ENE,66,0.0,1.0,100,0.02,,-RA,0.02,VWS V14.01,2013-07-02 05:57:00,
2013-07-02 02:00:00,67.7,67.7,30.10,ENE,77,0.0,1.0,100,0.02,,SCT070,0.02,VWS V14.01,2013-07-02 06:00:00,
2013-07-02 02:02:00,67.7,67.7,30.10,NNE,31,0.0,2.0,100,0.02,,-RA,0.02,VWS V14.01,2013-07-02 06:02:00,
2013-07-02 02:05:00,67.7,67.7,30.10,NNE,28,0.0,2.0,100,0.02,,SCT070,0.02,VWS V14.01,2013-07-02 06:05:00,
2013-07-02 02:07:00,67.5,67.5,30.10,ENE,63,0.0,3.0,100,0.02,,-RA,0.02,VWS V14.01,2013-07-02 06:07:00,
2013-07-02 02:10:00,67.5,67.5,30.10,ENE,62,0.0,3.0,100,0.02,,SCT070,0.02,VWS V14.01,2013-07-02 06:10:00,
2013-07-02 02:12:00,67.5,67.5,30.10,ENE,74,0.0,1.0,100,0.02,,-RA,0.02,VWS V14.01,2013-07-02 06:12:00,
2013-07-02 02:15:00,67.4,67.4,30.10,ENE,77,1.0,3.0,100,0.02,,SCT070,0.02,VWS V14.01,2013-07-02 06:15:00,
2013-07-02 02:17:00,67.0,67.0,30.10,ENE,62,2.0,5.0,100,0.02,,-RA,0.02,VWS V14.01,2013-07-02 06:17:00,
2013-07-02 02:20:00,66.9,66.6,30.10,NE,55,0.0,5.0,99,0.02,,SCT070,0.02,VWS V14.01,2013-07-02 06:20:00,
2013-07-02 02:22:00,66.7,66.7,30.10,NE,34,0.0,2.0,100,0.03,,-RA,0.03,VWS V14.01,2013-07-02 06:22:00,
2013-07-02 02:25:00,66.5,66.2,30.10,North,5,0.0,2.0,99,0.03,,SCT070,0.03,VWS V14.01,2013-07-02 06:25:00,
2013-07-02 02:27:00,66.2,65.9,30.10,East,86,0.0,6.0,99,0.03,,-RA,0.03,VWS V14.01,2013-07-02 06:27:00,
2013-07-02 02:30:00,66.2,66.2,30.10,North,354,0.0,6.0,100,0.03,,SCT070,0.03,VWS V14.01,2013-07-02 06:30:00,
2013-07-02 02:32:00,65.9,65.6,30.10,East,100,0.0,6.0,99,0.04,,-RA,0.04,VWS V14.01,2013-07-02 06:32:00,
2013-07-02 02:35:00,65.9,65.6,30.10,NE,49,0.0,6.0,99,0.04,,SCT070,0.04,VWS V14.01,2013-07-02 06:35:00,
2013-07-02 02:37:00,65.5,65.5,30.10,NE,42,6.0,6.0,100,0.04,,-RA,0.04,VWS V14.01,2013-07-02 06:37:00,
2013-07-02 02:40:00,65.5,65.2,30.10,ESE,114,0.0,6.0,99,0.04,,SCT070,0.04,VWS V14.01,2013-07-02 06:40:00,
2013-07-02 02:42:00,65.4,65.4,30.10,NE,53,0.0,2.0,100,0.05,,-RA,0.05,VWS V14.01,2013-07-02 06:42:00,
2013-07-02 02:45:00,65.4,65.4,30.10,NNE,24,4.0,5.0,100,0.05,,SCT070,0.05,VWS V14.01,2013-07-02 06:45:00,
2013-07-02 02:47:00,65.2,65.2,30.10,NE,53,0.0,4.0,100,0.05,,-RA,0.06,VWS V14.01,2013-07-02 06:47:00,
2013-07-02 02:50:00,65.2,65.2,30.10,North,2,0.0,4.0,100,0.05,,SCT070,0.06,VWS V14.01,2013-07-02 06:50:00,
2013-07-02 02:52:00,65.2,65.2,30.10,NE,49,0.0,2.0,100,0.05,,-RA,0.06,VWS V14.01,2013-07-02 06:52:00,
2013-07-02 02:55:00,65.2,65.2,30.10,ENE,67,0.0,3.0,100,0.05,,SCT070,0.06,VWS V14.01,2013-07-02 06:55:00,
2013-07-02 02:57:00,65.0,65.0,30.10,NE,52,0.0,3.0,100,0.05,,-RA,0.06,VWS V14.01,2013-07-02 06:57:00,
2013-07-02 03:00:00,65.0,65.0,30.11,NE,56,1.0,6.0,100,0.05,,SCT070,0.06,VWS V14.01,2013-07-02 07:00:00,
2013-07-02 03:02:00,64.9,64.9,30.11,ENE,69,1.0,5.0,100,0.04,,-RA,0.06,VWS V14.01,2013-07-02 07:02:00,
2013-07-02 03:05:00,64.9,64.9,30.11,NE,52,2.0,5.0,100,0.04,,SCT070,0.06,VWS V14.01,2013-07-02 07:05:00,
2013-07-02 03:07:00,64.7,64.7,30.11,NNE,14,0.0,5.0,100,0.04,,-RA,0.06,VWS V14.01,2013-07-02 07:07:00,
2013-07-02 03:10:00,64.7,64.7,30.11,ENE,70,2.0,5.0,100,0.04,,SCT070,0.06,VWS V14.01,2013-07-02 07:10:00,
2013-07-02 03:12:00,64.7,64.7,30.11,North,2,0.0,3.0,100,0.04,,-RA,0.06,VWS V14.01,2013-07-02 07:12:00,
2013-07-02 03:15:00,64.7,64.7,30.11,North,2,0.0,3.0,100,0.04,,SCT070,0.06,VWS V14.01,2013-07-02 07:15:00,
2013-07-02 03:17:00,64.7,64.7,30.11,NNE,32,0.0,6.0,100,0.04,,-RA,0.06,VWS V14.01,2013-07-02 07:17:00,
2013-07-02 03:20:00,64.7,64.7,30.11,ENE,62,0.0,6.0,100,0.04,,SCT070,0.06,VWS V14.01,2013-07-02 07:20:00,
2013-07-02 03:22:00,64.5,64.5,30.11,NE,56,2.0,3.0,100,0.04,,-RA,0.06,VWS V14.01,2013-07-02 07:22:00,
2013-07-02 03:25:00,64.5,64.5,30.11,NNE,26,0.0,6.0,100,0.04,,SCT070,0.06,VWS V14.01,2013-07-02 07:25:00,
2013-07-02 03:27:00,64.4,64.4,30.11,NNE,18,1.0,3.0,100,0.03,,-RA,0.06,VWS V14.01,2013-07-02 07:27:00,
2013-07-02 03:30:00,64.4,64.4,30.11,East,86,0.0,3.0,100,0.03,,SCT070,0.06,VWS V14.01,2013-07-02 07:30:00,
2013-07-02 03:32:00,64.4,64.4,30.11,ENE,70,0.0,2.0,100,0.03,,-RA,0.06,VWS V14.01,2013-07-02 07:32:00,
2013-07-02 03:35:00,64.2,64.2,30.11,ENE,70,0.0,2.0,100,0.03,,SCT070,0.06,VWS V14.01,2013-07-02 07:35:00,
2013-07-02 03:37:00,64.2,64.2,30.11,SE,128,0.0,1.0,100,0.02,,-RA,0.06,VWS V14.01,2013-07-02 07:37:00,
2013-07-02 03:40:00,64.2,64.2,30.11,WSW,244,0.0,3.0,100,0.02,,SCT070,0.06,VWS V14.01,2013-07-02 07:40:00,
2013-07-02 03:42:00,64.1,64.1,30.11,NW,316,0.0,2.0,100,0.02,,-RA,0.06,VWS V14.01,2013-07-02 07:42:00,
2013-07-02 03:45:00,64.1,64.1,30.12,NW,316,0.0,2.0,100,0.02,,SCT070,0.06,VWS V14.01,2013-07-02 07:45:00,
2013-07-02 03:47:00,64.1,64.1,30.12,NW,323,0.0,1.0,100,0.01,,-RA,0.06,VWS V14.01,2013-07-02 07:47:00,
2013-07-02 03:50:00,64.1,64.1,30.12,NW,324,0.0,1.0,100,0.01,,SCT070,0.06,VWS V14.01,2013-07-02 07:50:00,
2013-07-02 03:52:00,63.9,63.9,30.12,NNE,14,0.0,3.0,100,0.00,,-RA,0.06,VWS V14.01,2013-07-02 07:52:00,
2013-07-02 03:55:00,63.9,63.9,30.12,NNE,14,0.0,3.0,100,0.00,,SCT070,0.06,VWS V14.01,2013-07-02 07:55:00,
2013-07-02 03:57:00,63.9,63.9,30.12,NE,53,0.0,0.0,100,0.00,,-RA,0.06,VWS V14.01,2013-07-02 07:57:00,
2013-07-02 04:00:00,63.9,63.9,30.12,ESE,115,0.0,0.0,100,0.00,,SCT070,0.06,VWS V14.01,2013-07-02 08:00:00,
2013-07-02 04:02:00,63.9,63.9,30.12,NE,50,0.0,3.0,100,0.01,,-RA,0.07,VWS V14.01,2013-07-02 08:02:00,
2013-07-02 04:05:00,63.7,63.7,30.12,ENE,77,0.0,3.0,100,0.01,,SCT070,0.07,VWS V14.01,2013-07-02 08:05:00,
2013-07-02 04:07:00,63.6,63.6,30.12,East,82,0.0,3.0,100,0.01,,-RA,0.07,VWS V14.01,2013-07-02 08:07:00,
2013-07-02 04:10:00,63.4,63.4,30.12,North,1,2.0,5.0,100,0.01,,SCT070,0.07,VWS V14.01,2013-07-02 08:10:00,
2013-07-02 04:12:00,63.1,62.8,30.12,ENE,69,2.0,6.0,99,0.01,,-RA,0.07,VWS V14.01,2013-07-02 08:12:00,
2013-07-02 04:15:00,63.1,62.8,30.13,SW,233,0.0,6.0,99,0.02,,SCT070,0.08,VWS V14.01,2013-07-02 08:15:00,
2013-07-02 04:17:00,62.9,62.6,30.13,East,84,0.0,2.0,99,0.02,,-RA,0.08,VWS V14.01,2013-07-02 08:17:00,
2013-07-02 04:20:00,62.8,62.5,30.13,NNW,347,5.0,5.0,99,0.02,,SCT070,0.08,VWS V14.01,2013-07-02 08:20:00,
2013-07-02 04:22:00,62.6,62.3,30.13,North,0,0.0,5.0,99,0.02,,RA,0.08,VWS V14.01,2013-07-02 08:22:00,
2013-07-02 04:25:00,62.4,62.1,30.13,North,350,1.0,5.0,99,0.02,,SCT070,0.08,VWS V14.01,2013-07-02 08:25:00,
2013-07-02 04:27:00,62.1,61.8,30.13,NW,326,0.0,5.0,99,0.02,,RA,0.08,VWS V14.01,2013-07-02 08:27:00,
2013-07-02 04:30:00,62.0,61.7,30.14,WNW,302,3.0,5.0,99,0.02,,SCT070,0.08,VWS V14.01,2013-07-02 08:30:00,
2013-07-02 04:32:00,61.6,61.3,30.14,NE,45,2.0,7.0,99,0.03,,-RA,0.09,VWS V14.01,2013-07-02 08:32:00,
2013-07-02 04:35:00,61.6,61.3,30.14,NE,52,0.0,7.0,99,0.03,,SCT070,0.09,VWS V14.01,2013-07-02 08:35:00,
2013-07-02 04:37:00,61.3,61.0,30.14,East,82,0.0,3.0,99,0.04,,-RA,0.10,VWS V14.01,2013-07-02 08:37:00,
2013-07-02 04:40:00,61.3,61.0,30.14,NE,46,2.0,3.0,99,0.04,,SCT070,0.10,VWS V14.01,2013-07-02 08:40:00,
2013-07-02 04:42:00,61.2,60.9,30.14,East,98,2.0,3.0,99,0.04,,-RA,0.10,VWS V14.01,2013-07-02 08:42:00,
2013-07-02 04:45:00,61.0,60.7,30.15,NNW,344,5.0,5.0,99,0.04,,SCT070,0.10,VWS V14.01,2013-07-02 08:45:00,
2013-07-02 04:47:00,60.7,60.4,30.15,North,11,0.0,5.0,99,0.04,,-RA,0.10,VWS V14.01,2013-07-02 08:47:00,
2013-07-02 04:50:00,60.5,60.2,30.15,North,7,1.0,5.0,99,0.04,,SCT070,0.10,VWS V14.01,2013-07-02 08:50:00,
2013-07-02 04:52:00,60.1,59.5,30.15,South,185,2.0,4.0,98,0.04,,-RA,0.10,VWS V14.01,2013-07-02 08:52:00,
2013-07-02 04:55:00,59.7,59.4,30.15,ESE,114,1.0,5.0,99,0.04,,SCT070,0.10,VWS V14.01,2013-07-02 08:55:00,
2013-07-02 04:57:00,59.3,58.7,30.15,NE,46,3.0,6.0,98,0.04,,-RA,0.10,VWS V14.01,2013-07-02 08:57:00,
2013-07-02 05:00:00,59.1,58.5,30.15,NE,50,0.0,6.0,98,0.04,,SCT070,0.10,VWS V14.01,2013-07-02 09:00:00,
2013-07-02 05:02:00,58.8,58.2,30.15,North,355,0.0,3.0,98,0.04,,-RA,0.10,VWS V14.01,2013-07-02 09:02:00,
2013-07-02 05:05:00,58.8,58.2,30.15,SSW,196,0.0,3.0,98,0.04,,SCT070,0.10,VWS V14.01,2013-07-02 09:05:00,
2013-07-02 05:07:00,58.5,57.9,30.15,NNW,343,3.0,3.0,98,0.03,,-RA,0.10,VWS V14.01,2013-07-02 09:07:00,
2013-07-02 05:10:00,58.5,57.9,30.15,NNW,343,5.0,6.0,98,0.03,,SCT070,0.10,VWS V14.01,2013-07-02 09:10:00,
2013-07-02 05:12:00,58.3,57.7,30.15,NNE,21,1.0,5.0,98,0.03,,-RA,0.10,VWS V14.01,2013-07-02 09:12:00,
2013-07-02 05:15:00,58.2,57.6,30.16,ENE,60,2.0,6.0,98,0.03,,SCT070,0.10,VWS V14.01,2013-07-02 09:15:00,
2013-07-02 05:17:00,57.9,57.3,30.16,ENE,76,0.0,7.0,98,0.02,,-RA,0.10,VWS V14.01,2013-07-02 09:17:00,
2013-07-02 05:20:00,57.9,57.3,30.16,NNE,18,2.0,7.0,98,0.03,,SCT070,0.11,VWS V14.01,2013-07-02 09:20:00,
2013-07-02 05:22:00,57.6,57.0,30.16,NE,48,0.0,7.0,98,0.03,,-RA,0.11,VWS V14.01,2013-07-02 09:22:00,
2013-07-02 05:25:00,57.6,57.0,30.16,East,93,0.0,7.0,98,0.03,,SCT070,0.11,VWS V14.01,2013-07-02 09:25:00,
2013-07-02 05:27:00,57.4,56.8,30.16,East,97,0.0,5.0,98,0.03,,-RA,0.11,VWS V14.01,2013-07-02 09:27:00,
2013-07-02 05:30:00,57.4,56.8,30.16,NNE,32,0.0,5.0,98,0.03,,SCT070,0.11,VWS V14.01,2013-07-02 09:30:00,
2013-07-02 05:32:00,57.3,56.7,30.16,NNE,26,3.0,10.0,98,0.03,,-RA,0.11,VWS V14.01,2013-07-02 09:32:00,
2013-07-02 05:35:00,57.3,56.7,30.16,ENE,67,1.0,10.0,98,0.03,,SCT070,0.11,VWS V14.01,2013-07-02 09:35:00,
2013-07-02 05:37:00,57.1,56.5,30.16,North,11,0.0,5.0,98,0.02,,-RA,0.11,VWS V14.01,2013-07-02 09:37:00,
2013-07-02 05:40:00,57.0,56.4,30.16,NE,48,0.0,7.0,98,0.02,,SCT070,0.11,VWS V14.01,2013-07-02 09:40:00,
2013-07-02 05:42:00,57.0,56.4,30.16,ENE,72,1.0,6.0,98,0.02,,-RA,0.12,VWS V14.01,2013-07-02 09:42:00,
2013-07-02 05:45:00,57.0,56.4,30.16,ENE,74,0.0,6.0,98,0.02,,SCT070,0.12,VWS V14.01,2013-07-02 09:45:00,
2013-07-02 05:47:00,56.8,56.2,30.16,NNE,17,0.0,5.0,98,0.02,,-RA,0.12,VWS V14.01,2013-07-02 09:47:00,
2013-07-02 05:50:00,56.8,56.2,30.16,ENE,60,0.0,5.0,98,0.02,,SCT070,0.12,VWS V14.01,2013-07-02 09:50:00,
2013-07-02 05:52:00,56.8,56.2,30.16,ENE,60,6.0,7.0,98,0.02,,-RA,0.12,VWS V14.01,2013-07-02 09:52:00,
2013-07-02 05:55:00,56.8,56.2,30.16,NE,56,2.0,7.0,98,0.02,,SCT070,0.12,VWS V14.01,2013-07-02 09:55:00,
2013-07-02 05:57:00,56.8,56.2,30.16,South,176,0.0,5.0,98,0.02,,-RA,0.12,VWS V14.01,2013-07-02 09:57:00,
2013-07-02 06:00:00,56.8,56.2,30.17,SSW,203,0.0,5.0,98,0.02,,SCT070,0.12,VWS V14.01,2013-07-02 10:00:00,
2013-07-02 06:02:00,56.8,56.2,30.17,NNW,336,0.0,4.0,98,0.02,,-RA,0.12,VWS V14.01,2013-07-02 10:02:00,
2013-07-02 06:05:00,56.8,56.2,30.17,NE,42,0.0,4.0,98,0.02,,SCT070,0.12,VWS V14.01,2013-07-02 10:05:00,
2013-07-02 06:07:00,56.7,56.1,30.17,NE,41,0.0,3.0,98,0.02,,-RA,0.12,VWS V14.01,2013-07-02 10:07:00,
2013-07-02 06:10:00,56.7,56.1,30.17,NE,41,0.0,3.0,98,0.02,,SCT070,0.12,VWS V14.01,2013-07-02 10:10:00,
2013-07-02 06:12:00,56.7,56.1,30.17,SW,220,0.0,5.0,98,0.02,,-RA,0.12,VWS V14.01,2013-07-02 10:12:00,
2013-07-02 06:15:00,56.7,56.1,30.17,NE,41,5.0,6.0,98,0.03,,SCT070,0.13,VWS V14.01,2013-07-02 10:15:00,
2013-07-02 06:17:00,56.5,55.9,30.17,ENE,60,1.0,6.0,98,0.03,,-RA,0.13,VWS V14.01,2013-07-02 10:17:00,
2013-07-02 06:20:00,56.5,55.9,30.17,NNE,32,5.0,6.0,98,0.03,,SCT070,0.13,VWS V14.01,2013-07-02 10:20:00,
2013-07-02 06:22:00,56.5,55.9,30.17,WNW,303,13.0,13.0,98,0.02,,-RA,0.13,VWS V14.01,2013-07-02 10:22:00,
2013-07-02 06:25:00,56.5,55.9,30.17,ENE,70,0.0,13.0,98,0.02,,SCT070,0.13,VWS V14.01,2013-07-02 10:25:00,
2013-07-02 06:27:00,56.5,56.2,30.17,East,91,0.0,2.0,99,0.02,,-RA,0.13,VWS V14.01,2013-07-02 10:27:00,
2013-07-02 06:28:00,56.5,56.2,30.17,NE,35,3.0,3.0,99,0.02,,-RA,0.13,VWS V14.01,2013-07-02 10:28:00,
2013-07-02 06:30:00,56.5,56.2,30.17,NE,35,0.0,3.0,99,0.02,,SCT070,0.13,VWS V14.01,2013-07-02 10:30:00,
2013-07-02 06:33:00,56.7,56.4,30.17,NNW,337,0.0,2.0,99,0.02,,-RA,0.13,VWS V14.01,2013-07-02 10:33:00,
2013-07-02 06:35:00,56.7,56.4,30.17,East,82,2.0,2.0,99,0.02,,SCT070,0.13,VWS V14.01,2013-07-02 10:35:00,
2013-07-02 06:38:00,56.5,56.2,30.17,NW,326,0.0,3.0,99,0.02,,-RA,0.13,VWS V14.01,2013-07-02 10:38:00,
2013-07-02 06:40:00,56.5,55.9,30.17,North,8,2.0,3.0,98,0.02,,SCT070,0.13,VWS V14.01,2013-07-02 10:40:00,
2013-07-02 06:43:00,56.5,56.2,30.18,NNE,12,1.0,5.0,99,0.02,,-RA,0.13,VWS V14.01,2013-07-02 10:43:00,
2013-07-02 06:45:00,56.5,56.2,30.18,NNE,21,0.0,5.0,99,0.02,,SCT070,0.13,VWS V14.01,2013-07-02 10:45:00,
2013-07-02 06:48:00,56.5,56.2,30.18,NNE,29,2.0,6.0,99,0.01,,-RA,0.13,VWS V14.01,2013-07-02 10:48:00,
2013-07-02 06:50:00,56.5,56.2,30.18,NNE,24,0.0,6.0,99,0.01,,SCT070,0.13,VWS V14.01,2013-07-02 10:50:00,
2013-07-02 06:53:00,56.5,56.2,30.18,ENE,70,1.0,9.0,99,0.01,,-RA,0.13,VWS V14.01,2013-07-02 10:53:00,
2013-07-02 06:55:00,56.5,56.2,30.18,East,82,0.0,9.0,99,0.01,,SCT070,0.13,VWS V14.01,2013-07-02 10:55:00,
2013-07-02 06:58:00,56.5,56.2,30.18,NNE,19,0.0,5.0,99,0.01,,-RA,0.13,VWS V14.01,2013-07-02 10:58:00,
2013-07-02 07:00:00,56.5,56.2,30.18,NE,41,0.0,5.0,99,0.01,,SCT070,0.13,VWS V14.01,2013-07-02 11:00:00,
2013-07-02 07:03:00,56.5,56.2,30.18,East,86,6.0,6.0,99,0.01,,-RA,0.13,VWS V14.01,2013-07-02 11:03:00,
2013-07-02 07:05:00,56.5,56.2,30.18,NE,42,0.0,6.0,99,0.01,,SCT070,0.13,VWS V14.01,2013-07-02 11:05:00,
2013-07-02 07:08:00,56.5,56.2,30.18,East,87,0.0,5.0,99,0.01,,-RA,0.13,VWS V14.01,2013-07-02 11:08:00,
2013-07-02 07:10:00,56.5,56.2,30.18,ENE,62,0.0,5.0,99,0.01,,SCT070,0.13,VWS V14.01,2013-07-02 11:10:00,
2013-07-02 07:13:00,56.5,56.2,30.19,South,175,0.0,0.0,99,0.01,,-RA,0.13,VWS V14.01,2013-07-02 11:13:00,
2013-07-02 07:15:00,56.5,56.2,30.19,West,278,0.0,0.0,99,0.01,,SCT070,0.13,VWS V14.01,2013-07-02 11:15:00,
2013-07-02 07:18:00,56.5,56.2,30.19,NW,319,0.0,5.0,99,0.00,,-RA,0.13,VWS V14.01,2013-07-02 11:18:00,
2013-07-02 07:20:00,56.5,56.2,30.19,ENE,66,2.0,5.0,99,0.00,,SCT070,0.13,VWS V14.01,2013-07-02 11:20:00,
2013-07-02 07:23:00,56.5,56.2,30.19,NNW,341,1.0,5.0,99,0.00,,-RA,0.13,VWS V14.01,2013-07-02 11:23:00,
2013-07-02 07:25:00,56.5,56.2,30.19,SW,231,0.0,5.0,99,0.00,,SCT070,0.13,VWS V14.01,2013-07-02 11:25:00,
2013-07-02 07:28:00,56.5,56.2,30.20,SW,231,0.0,0.0,99,0.00,,-RA,0.13,VWS V14.01,2013-07-02 11:28:00,
2013-07-02 07:30:00,56.5,56.2,30.20,SW,231,0.0,0.0,99,0.00,,SCT070,0.13,VWS V14.01,2013-07-02 11:30:00,
2013-07-02 07:33:00,56.5,56.2,30.20,NNE,32,0.0,6.0,99,0.00,,-RA,0.13,VWS V14.01,2013-07-02 11:33:00,
2013-07-02 07:35:00,56.5,56.2,30.20,NE,45,1.0,6.0,99,0.01,,SCT070,0.14,VWS V14.01,2013-07-02 11:35:00,
2013-07-02 07:38:00,56.5,56.2,30.20,NE,55,2.0,3.0,99,0.01,,-RA,0.14,VWS V14.01,2013-07-02 11:38:00,
2013-07-02 07:40:00,56.4,56.1,30.20,North,351,1.0,3.0,99,0.01,,SCT070,0.14,VWS V14.01,2013-07-02 11:40:00,
2013-07-02 07:43:00,56.5,56.2,30.21,NW,323,0.0,3.0,99,0.01,,-RA,0.14,VWS V14.01,2013-07-02 11:43:00,
2013-07-02 07:45:00,56.5,56.2,30.21,NW,323,0.0,3.0,99,0.01,,SCT070,0.14,VWS V14.01,2013-07-02 11:45:00,
2013-07-02 07:48:00,56.5,56.2,30.21,NW,324,4.0,5.0,99,0.01,,-RA,0.14,VWS V14.01,2013-07-02 11:48:00,
2013-07-02 07:50:00,56.5,56.2,30.21,NW,326,0.0,7.0,99,0.01,,SCT070,0.14,VWS V14.01,2013-07-02 11:50:00,
2013-07-02 07:53:00,56.5,56.2,30.21,NE,56,3.0,5.0,99,0.01,,-RA,0.14,VWS V14.01,2013-07-02 11:53:00,
2013-07-02 07:55:00,56.5,56.2,30.21,East,82,0.0,5.0,99,0.01,,SCT070,0.14,VWS V14.01,2013-07-02 11:55:00,
2013-07-02 07:58:00,56.5,56.2,30.21,NNW,330,0.0,2.0,99,0.01,,-RA,0.14,VWS V14.01,2013-07-02 11:58:00,
2013-07-02 08:00:00,56.5,56.2,30.21,SSW,204,0.0,2.0,99,0.01,,SCT070,0.14,VWS V14.01,2013-07-02 12:00:00,
2013-07-02 08:03:00,56.7,56.4,30.21,NNE,15,0.0,2.0,99,0.01,,-RA,0.14,VWS V14.01,2013-07-02 12:03:00,
2013-07-02 08:05:00,56.7,56.4,30.21,SSW,202,0.0,2.0,99,0.01,,SCT070,0.14,VWS V14.01,2013-07-02 12:05:00,
2013-07-02 08:08:00,56.7,56.4,30.21,East,84,3.0,4.0,99,0.01,,-RA,0.14,VWS V14.01,2013-07-02 12:08:00,
2013-07-02 08:10:00,56.7,56.4,30.21,ESE,114,2.0,6.0,99,0.01,,SCT070,0.14,VWS V14.01,2013-07-02 12:10:00,
2013-07-02 08:13:00,56.7,56.4,30.21,NNW,336,0.0,2.0,99,0.01,,-RA,0.14,VWS V14.01,2013-07-02 12:13:00,
2013-07-02 08:15:00,56.7,56.4,30.21,NNW,336,0.0,2.0,99,0.01,,SCT070,0.14,VWS V14.01,2013-07-02 12:15:00,
2013-07-02 08:18:00,56.7,56.4,30.21,West,261,2.0,2.0,99,0.01,,-RA,0.14,VWS V14.01,2013-07-02 12:18:00,
2013-07-02 08:20:00,56.7,56.4,30.21,NE,56,2.0,6.0,99,0.01,,SCT070,0.14,VWS V14.01,2013-07-02 12:20:00,
2013-07-02 08:23:00,56.7,56.4,30.21,NNE,22,0.0,6.0,99,0.01,,-RA,0.14,VWS V14.01,2013-07-02 12:23:00,
2013-07-02 08:25:00,56.7,56.4,30.21,NE,35,0.0,6.0,99,0.01,,SCT070,0.14,VWS V14.01,2013-07-02 12:25:00,
2013-07-02 08:28:00,56.7,56.4,30.21,NE,39,0.0,7.0,99,0.01,,-RA,0.14,VWS V14.01,2013-07-02 12:28:00,
2013-07-02 08:30:00,56.7,56.4,30.21,NE,35,2.0,7.0,99,0.01,,SCT070,0.14,VWS V14.01,2013-07-02 12:30:00,
2013-07-02 08:33:00,56.7,56.4,30.21,East,83,0.0,2.0,99,0.01,,-RA,0.14,VWS V14.01,2013-07-02 12:33:00,
2013-07-02 08:35:00,56.7,56.4,30.21,NNE,31,0.0,2.0,99,0.01,,SCT070,0.14,VWS V14.01,2013-07-02 12:35:00,
2013-07-02 08:38:00,56.8,56.5,30.21,NE,42,0.0,7.0,99,0.00,,-RA,0.14,VWS V14.01,2013-07-02 12:38:00,
2013-07-02 08:40:00,56.8,56.5,30.21,NE,42,0.0,7.0,99,0.00,,SCT070,0.14,VWS V14.01,2013-07-02 12:40:00,
2013-07-02 08:43:00,56.8,56.5,30.22,NE,53,0.0,2.0,99,0.00,,-RA,0.14,VWS V14.01,2013-07-02 12:43:00,
2013-07-02 08:45:00,56.8,56.5,30.22,NE,53,0.0,2.0,99,0.00,,SCT070,0.14,VWS V14.01,2013-07-02 12:45:00,
2013-07-02 08:48:00,56.8,56.5,30.22,East,83,0.0,2.0,99,0.00,,-RA,0.14,VWS V14.01,2013-07-02 12:48:00,
2013-07-02 08:50:00,56.8,56.5,30.22,East,83,0.0,2.0,99,0.01,,SCT070,0.15,VWS V14.01,2013-07-02 12:50:00,
2013-07-02 08:53:00,56.8,56.5,30.22,SW,221,0.0,8.0,99,0.01,,-RA,0.15,VWS V14.01,2013-07-02 12:53:00,
2013-07-02 08:55:00,56.8,56.5,30.22,NNE,31,1.0,8.0,99,0.01,,SCT070,0.15,VWS V14.01,2013-07-02 12:55:00,
2013-07-02 08:58:00,56.8,56.5,30.22,SW,230,0.0,4.0,99,0.01,,-RA,0.15,VWS V14.01,2013-07-02 12:58:00,
2013-07-02 09:00:00,56.8,56.5,30.22,SW,230,0.0,4.0,99,0.01,,SCT070,0.15,VWS V14.01,2013-07-02 13:00:00,
2013-07-02 09:03:00,56.8,56.5,30.22,NE,45,0.0,3.0,99,0.01,,-RA,0.15,VWS V14.01,2013-07-02 13:03:00,
2013-07-02 09:05:00,57.0,56.7,30.22,NE,48,0.0,3.0,99,0.01,,SCT070,0.15,VWS V14.01,2013-07-02 13:05:00,
2013-07-02 09:08:00,57.0,56.7,30.22,North,354,0.0,5.0,99,0.01,,-RA,0.15,VWS V14.01,2013-07-02 13:08:00,
2013-07-02 09:10:00,57.0,56.7,30.22,NNE,28,0.0,5.0,99,0.01,,SCT070,0.15,VWS V14.01,2013-07-02 13:10:00,
2013-07-02 09:13:00,56.8,56.5,30.22,East,84,0.0,5.0,99,0.01,,-RA,0.15,VWS V14.01,2013-07-02 13:13:00,
2013-07-02 09:15:00,56.8,56.5,30.22,ENE,74,0.0,5.0,99,0.01,,SCT070,0.15,VWS V14.01,2013-07-02 13:15:00,
2013-07-02 09:18:00,57.0,56.7,30.22,NE,52,0.0,2.0,99,0.01,,-RA,0.15,VWS V14.01,2013-07-02 13:18:00,
2013-07-02 09:20:00,57.0,56.7,30.22,North,4,6.0,6.0,99,0.01,,SCT070,0.15,VWS V14.01,2013-07-02 13:20:00,
2013-07-02 09:23:00,57.1,56.8,30.22,ENE,70,2.0,6.0,99,0.01,,-RA,0.15,VWS V14.01,2013-07-02 13:23:00,
2013-07-02 09:25:00,57.1,56.8,30.22,ENE,72,0.0,6.0,99,0.01,,SCT070,0.15,VWS V14.01,2013-07-02 13:25:00,
2013-07-02 09:28:00,57.1,56.8,30.22,SE,131,0.0,2.0,99,0.01,,-RA,0.15,VWS V14.01,2013-07-02 13:28:00,
2013-07-02 09:30:00,57.1,56.8,30.22,SE,131,0.0,2.0,99,0.01,,SCT070,0.15,VWS V14.01,2013-07-02 13:30:00,
2013-07-02 09:33:00,57.3,57.0,30.22,ENE,59,0.0,5.0,99,0.01,,-RA,0.15,VWS V14.01,2013-07-02 13:33:00,
2013-07-02 09:35:00,57.3,57.0,30.22,ENE,76,0.0,5.0,99,0.01,,SCT070,0.15,VWS V14.01,2013-07-02 13:35:00,
2013-07-02 09:38:00,57.3,57.0,30.22,NNW,343,0.0,3.0,99,0.01,,-RA,0.15,VWS V14.01,2013-07-02 13:38:00,
2013-07-02 09:40:00,57.3,57.0,30.22,NW,323,2.0,5.0,99,0.01,,SCT070,0.15,VWS V14.01,2013-07-02 13:40:00,
2013-07-02 09:43:00,57.3,57.0,30.23,NNE,22,0.0,5.0,99,0.01,,-RA,0.15,VWS V14.01,2013-07-02 13:43:00,
2013-07-02 09:45:00,57.3,57.0,30.23,NE,35,0.0,5.0,99,0.01,,SCT070,0.15,VWS V14.01,2013-07-02 13:45:00,
2013-07-02 09:48:00,57.4,57.1,30.23,ENE,58,1.0,5.0,99,0.01,,-RA,0.15,VWS V14.01,2013-07-02 13:48:00,
2013-07-02 09:50:00,57.4,57.1,30.23,SSE,163,0.0,5.0,99,0.01,,SCT070,0.15,VWS V14.01,2013-07-02 13:50:00,
2013-07-02 09:53:00,57.4,57.1,30.23,NE,39,0.0,3.0,99,0.00,,-RA,0.15,VWS V14.01,2013-07-02 13:53:00,
2013-07-02 09:55:00,57.4,57.1,30.23,ENE,67,0.0,3.0,99,0.00,,SCT070,0.15,VWS V14.01,2013-07-02 13:55:00,
2013-07-02 09:58:00,57.4,57.1,30.23,ENE,62,0.0,1.0,99,0.00,,-RA,0.15,VWS V14.01,2013-07-02 13:58:00,
2013-07-02 10:00:00,57.4,57.1,30.23,ENE,62,0.0,1.0,99,0.00,,SCT070,0.15,VWS V14.01,2013-07-02 14:00:00,
2013-07-02 10:03:00,57.4,57.1,30.23,NNE,31,0.0,5.0,99,0.00,,-RA,0.15,VWS V14.01,2013-07-02 14:03:00,
2013-07-02 10:05:00,57.4,57.1,30.23,ESE,114,0.0,5.0,99,0.00,,SCT070,0.15,VWS V14.01,2013-07-02 14:05:00,
2013-07-02 10:08:00,57.4,57.1,30.23,ENE,59,5.0,8.0,99,0.00,,-RA,0.15,VWS V14.01,2013-07-02 14:08:00,
2013-07-02 10:10:00,57.4,57.1,30.23,East,93,0.0,8.0,99,0.00,,SCT070,0.15,VWS V14.01,2013-07-02 14:10:00,
2013-07-02 10:13:00,57.6,57.3,30.22,North,8,3.0,5.0,99,0.00,,-RA,0.15,VWS V14.01,2013-07-02 14:13:00,
2013-07-02 10:15:00,57.6,57.3,30.22,NW,314,0.0,5.0,99,0.00,,SCT070,0.15,VWS V14.01,2013-07-02 14:15:00,
2013-07-02 10:18:00,57.6,57.3,30.22,NE,52,0.0,5.0,99,0.00,,-RA,0.15,VWS V14.01,2013-07-02 14:18:00,
2013-07-02 10:20:00,57.6,57.3,30.22,East,97,1.0,5.0,99,0.00,,SCT070,0.15,VWS V14.01,2013-07-02 14:20:00,
2013-07-02 10:23:00,57.6,57.3,30.22,East,89,0.0,2.0,99,0.00,,-RA,0.15,VWS V14.01,2013-07-02 14:23:00,
2013-07-02 10:25:00,57.6,57.3,30.22,ENE,69,1.0,3.0,99,0.00,,SCT070,0.15,VWS V14.01,2013-07-02 14:25:00,
2013-07-02 10:28:00,57.7,57.4,30.22,NE,53,0.0,3.0,99,0.00,,-RA,0.15,VWS V14.01,2013-07-02 14:28:00,
2013-07-02 10:30:00,57.7,57.4,30.22,North,0,2.0,3.0,99,0.00,,SCT070,0.15,VWS V14.01,2013-07-02 14:30:00,
2013-07-02 10:33:00,57.7,57.4,30.22,ENE,66,0.0,5.0,99,0.00,,-RA,0.15,VWS V14.01,2013-07-02 14:33:00,
2013-07-02 10:35:00,57.7,57.4,30.22,ENE,74,0.0,5.0,99,0.00,,SCT070,0.15,VWS V14.01,2013-07-02 14:35:00,
2013-07-02 10:38:00,57.9,57.6,30.22,ENE,66,0.0,2.0,99,0.00,,-RA,0.15,VWS V14.01,2013-07-02 14:38:00,
2013-07-02 10:40:00,57.9,57.6,30.22,ENE,62,0.0,2.0,99,0.00,,SCT070,0.15,VWS V14.01,2013-07-02 14:40:00,
2013-07-02 10:43:00,57.7,57.4,30.22,ENE,58,0.0,6.0,99,0.00,,-RA,0.15,VWS V14.01,2013-07-02 14:43:00,
2013-07-02 10:45:00,57.7,57.4,30.22,ENE,72,1.0,6.0,99,0.00,,SCT070,0.15,VWS V14.01,2013-07-02 14:45:00,
2013-07-02 10:48:00,57.7,57.4,30.22,East,97,0.0,7.0,99,0.00,,-RA,0.15,VWS V14.01,2013-07-02 14:48:00,
2013-07-02 10:50:00,57.7,57.4,30.22,East,79,0.0,7.0,99,0.00,,SCT070,0.15,VWS V14.01,2013-07-02 14:50:00,
2013-07-02 10:53:00,57.7,57.4,30.22,NE,48,4.0,6.0,99,0.00,,-RA,0.15,VWS V14.01,2013-07-02 14:53:00,
2013-07-02 10:55:00,57.7,57.4,30.22,NNE,24,5.0,6.0,99,0.00,,SCT070,0.15,VWS V14.01,2013-07-02 14:55:00,
2013-07-02 10:58:00,57.7,57.4,30.22,North,4,0.0,7.0,99,0.00,,,0.15,VWS V14.01,2013-07-02 14:58:00,
2013-07-02 11:00:00,57.7,57.4,30.22,ENE,66,4.0,7.0,99,0.00,,SCT070,0.15,VWS V14.01,2013-07-02 15:00:00,
2013-07-02 11:03:00,57.7,57.4,30.22,ESE,114,0.0,6.0,99,0.00,,,0.15,VWS V14.01,2013-07-02 15:03:00,
2013-07-02 11:05:00,57.7,57.4,30.22,ENE,59,0.0,6.0,99,0.00,,SCT070,0.15,VWS V14.01,2013-07-02 15:05:00,
2013-07-02 11:08:00,57.7,57.4,30.22,East,98,0.0,6.0,99,0.00,,,0.15,VWS V14.01,2013-07-02 15:08:00,
2013-07-02 11:10:00,57.7,57.4,30.22,East,98,0.0,6.0,99,0.00,,SCT070,0.15,VWS V14.01,2013-07-02 15:10:00,
2013-07-02 11:13:00,57.7,57.1,30.23,East,100,0.0,4.0,98,0.00,,,0.15,VWS V14.01,2013-07-02 15:13:00,
2013-07-02 11:15:00,57.7,57.1,30.23,ENE,69,1.0,4.0,98,0.00,,SCT070,0.15,VWS V14.01,2013-07-02 15:15:00,
2013-07-02 11:18:00,57.7,57.1,30.23,NE,52,1.0,6.0,98,0.00,,,0.15,VWS V14.01,2013-07-02 15:18:00,
2013-07-02 11:20:00,57.7,57.1,30.23,NNE,31,0.0,6.0,98,0.00,,SCT070,0.15,VWS V14.01,2013-07-02 15:20:00,
2013-07-02 11:23:00,57.7,57.1,30.23,NNW,340,4.0,7.0,98,0.00,,,0.15,VWS V14.01,2013-07-02 15:23:00,
2013-07-02 11:25:00,57.7,57.1,30.23,East,101,0.0,7.0,98,0.00,,SCT070,0.15,VWS V14.01,2013-07-02 15:25:00,
2013-07-02 11:28:00,57.7,57.1,30.22,NNE,12,0.0,6.0,98,0.00,,,0.15,VWS V14.01,2013-07-02 15:28:00,
2013-07-02 11:30:00,57.7,57.1,30.22,NNE,12,0.0,6.0,98,0.00,,SCT070,0.15,VWS V14.01,2013-07-02 15:30:00,
2013-07-02 11:33:00,57.9,57.3,30.22,NW,319,0.0,7.0,98,0.00,,,0.15,VWS V14.01,2013-07-02 15:33:00,
2013-07-02 11:35:00,57.9,57.3,30.22,NW,319,0.0,7.0,98,0.00,,SCT070,0.15,VWS V14.01,2013-07-02 15:35:00,
2013-07-02 11:38:00,57.9,57.3,30.22,NE,55,1.0,6.0,98,0.00,,,0.15,VWS V14.01,2013-07-02 15:38:00,
2013-07-02 11:40:00,57.9,57.3,30.22,ESE,104,2.0,6.0,98,0.00,,SCT070,0.15,VWS V14.01,2013-07-02 15:40:00,
2013-07-02 11:43:00,58.0,57.2,30.23,NNE,24,4.0,5.0,97,0.00,,,0.15,VWS V14.01,2013-07-02 15:43:00,
2013-07-02 11:45:00,58.0,57.2,30.23,ENE,77,3.0,5.0,97,0.00,,SCT070,0.15,VWS V14.01,2013-07-02 15:45:00,
2013-07-02 11:48:00,58.0,57.2,30.23,ENE,73,0.0,6.0,97,0.00,,,0.15,VWS V14.01,2013-07-02 15:48:00,
2013-07-02 11:50:00,58.0,57.2,30.23,ENE,73,0.0,6.0,97,0.00,,SCT070,0.15,VWS V14.01,2013-07-02 15:50:00,
2013-07-02 11:53:00,58.0,57.2,30.23,NE,55,0.0,5.0,97,0.00,,,0.15,VWS V14.01,2013-07-02 15:53:00,
2013-07-02 11:55:00,58.0,57.2,30.23,NE,55,0.0,5.0,97,0.00,,SCT070,0.15,VWS V14.01,2013-07-02 15:55:00,
2013-07-02 11:58:00,58.2,57.4,30.22,ENE,66,0.0,3.0,97,0.00,,,0.15,VWS V14.01,2013-07-02 15:58:00,
2013-07-02 12:00:00,58.2,57.4,30.22,ENE,65,2.0,3.0,97,0.00,,SCT070,0.15,VWS V14.01,2013-07-02 16:00:00,
2013-07-02 12:03:00,58.2,57.4,30.22,East,82,0.0,5.0,97,0.00,,,0.15,VWS V14.01,2013-07-02 16:03:00,
2013-07-02 12:05:00,58.2,57.4,30.22,ENE,77,0.0,5.0,97,0.00,,SCT070,0.15,VWS V14.01,2013-07-02 16:05:00,
2013-07-02 12:08:00,58.3,57.2,30.22,East,79,1.0,6.0,96,0.00,,,0.15,VWS V14.01,2013-07-02 16:08:00,
2013-07-02 12:10:00,58.3,57.2,30.22,ENE,72,0.0,6.0,96,0.00,,SCT070,0.15,VWS V14.01,2013-07-02 16:10:00,
2013-07-02 12:13:00,58.3,57.2,30.22,NE,41,1.0,5.0,96,0.00,,,0.15,VWS V14.01,2013-07-02 16:13:00,
2013-07-02 12:15:00,58.3,57.2,30.22,ENE,69,2.0,5.0,96,0.00,,SCT070,0.15,VWS V14.01,2013-07-02 16:15:00,
2013-07-02 12:18:00,58.5,57.4,30.22,North,357,3.0,6.0,96,0.00,,,0.15,VWS V14.01,2013-07-02 16:18:00,
2013-07-02 12:20:00,58.5,57.4,30.22,East,84,0.0,6.0,96,0.00,,SCT070,0.15,VWS V14.01,2013-07-02 16:20:00,
2013-07-02 12:23:00,58.3,57.2,30.22,East,89,0.0,5.0,96,0.00,,,0.15,VWS V14.01,2013-07-02 16:23:00,
2013-07-02 12:25:00,58.3,57.2,30.22,East,89,0.0,5.0,96,0.00,,SCT070,0.15,VWS V14.01,2013-07-02 16:25:00,
2013-07-02 12:28:00,58.3,57.2,30.22,East,83,0.0,3.0,96,0.00,,,0.15,VWS V14.01,2013-07-02 16:28:00,
2013-07-02 12:30:00,58.3,57.2,30.22,NE,56,2.0,3.0,96,0.00,,SCT070,0.15,VWS V14.01,2013-07-02 16:30:00,
2013-07-02 12:33:00,58.2,57.1,30.22,East,79,0.0,6.0,96,0.00,,,0.15,VWS V14.01,2013-07-02 16:33:00,
2013-07-02 12:35:00,58.2,57.1,30.22,East,79,0.0,6.0,96,0.00,,SCT070,0.15,VWS V14.01,2013-07-02 16:35:00,
2013-07-02 12:38:00,58.2,57.1,30.22,ENE,58,2.0,6.0,96,0.00,,,0.15,VWS V14.01,2013-07-02 16:38:00,
2013-07-02 12:40:00,58.2,57.1,30.22,ENE,74,0.0,6.0,96,0.00,,SCT070,0.15,VWS V14.01,2013-07-02 16:40:00,
2013-07-02 12:43:00,58.0,56.9,30.23,ENE,76,0.0,3.0,96,0.00,,,0.15,VWS V14.01,2013-07-02 16:43:00,
2013-07-02 12:45:00,58.0,56.9,30.23,ENE,76,0.0,3.0,96,0.00,,SCT070,0.15,VWS V14.01,2013-07-02 16:45:00,
2013-07-02 12:48:00,58.0,56.9,30.23,ENE,60,0.0,1.0,96,0.00,,,0.15,VWS V14.01,2013-07-02 16:48:00,
2013-07-02 12:50:00,58.0,56.9,30.23,ENE,60,0.0,1.0,96,0.00,,SCT070,0.15,VWS V14.01,2013-07-02 16:50:00,
2013-07-02 12:53:00,58.0,56.9,30.23,East,84,0.0,2.0,96,0.00,,,0.15,VWS V14.01,2013-07-02 16:53:00,
2013-07-02 12:55:00,58.0,56.9,30.23,East,84,0.0,2.0,96,0.00,,SCT070,0.15,VWS V14.01,2013-07-02 16:55:00,
2013-07-02 12:58:00,58.2,57.1,30.22,NNW,341,0.0,2.0,96,0.00,,,0.15,VWS V14.01,2013-07-02 16:58:00,
2013-07-02 13:00:00,58.2,57.1,30.22,NNW,341,0.0,2.0,96,0.00,,SCT070,0.15,VWS V14.01,2013-07-02 17:00:00,
2013-07-02 13:03:00,58.2,57.1,30.22,NE,38,0.0,5.0,96,0.00,,,0.15,VWS V14.01,2013-07-02 17:03:00,
2013-07-02 13:05:00,58.2,57.1,30.22,WSW,258,3.0,5.0,96,0.00,,SCT070,0.15,VWS V14.01,2013-07-02 17:05:00,
2013-07-02 13:08:00,58.2,57.1,30.22,East,90,0.0,6.0,96,0.00,,,0.15,VWS V14.01,2013-07-02 17:08:00,
2013-07-02 13:10:00,58.2,57.1,30.22,East,90,0.0,6.0,96,0.00,,SCT070,0.15,VWS V14.01,2013-07-02 17:10:00,
2013-07-02 13:13:00,58.3,57.2,30.23,NE,36,0.0,2.0,96,0.00,,,0.15,VWS V14.01,2013-07-02 17:13:00,
2013-07-02 13:15:00,58.3,57.2,30.23,ENE,72,0.0,2.0,96,0.00,,SCT070,0.15,VWS V14.01,2013-07-02 17:15:00,
2013-07-02 13:18:00,58.3,56.9,30.23,ENE,62,0.0,2.0,95,0.00,,,0.15,VWS V14.01,2013-07-02 17:18:00,
2013-07-02 13:20:00,58.3,56.9,30.23,ENE,65,0.0,2.0,95,0.00,,SCT070,0.15,VWS V14.01,2013-07-02 17:20:00,
2013-07-02 13:23:00,58.3,56.9,30.23,East,87,0.0,3.0,95,0.00,,,0.15,VWS V14.01,2013-07-02 17:23:00,
2013-07-02 13:25:00,58.3,56.9,30.23,East,87,0.0,3.0,95,0.00,,SCT070,0.15,VWS V14.01,2013-07-02 17:25:00,
2013-07-02 13:28:00,58.2,56.8,30.23,ENE,69,0.0,3.0,95,0.00,,,0.15,VWS V14.01,2013-07-02 17:28:00,
2013-07-02 13:30:00,58.2,56.8,30.23,ESE,111,0.0,3.0,95,0.00,,SCT070,0.15,VWS V14.01,2013-07-02 17:30:00,
2013-07-02 13:33:00,58.2,56.8,30.23,NE,41,0.0,5.0,95,0.00,,,0.15,VWS V14.01,2013-07-02 17:33:00,
2013-07-02 13:35:00,58.2,56.8,30.23,NE,41,0.0,5.0,95,0.00,,SCT070,0.15,VWS V14.01,2013-07-02 17:35:00,
2013-07-02 13:38:00,58.3,56.9,30.23,NNW,331,2.0,2.0,95,0.00,,,0.15,VWS V14.01,2013-07-02 17:38:00,
2013-07-02 13:40:00,58.3,56.9,30.23,NNE,28,0.0,2.0,95,0.00,,SCT070,0.15,VWS V14.01,2013-07-02 17:40:00,
2013-07-02 13:43:00,58.2,56.8,30.23,NNE,15,0.0,3.0,95,0.00,,,0.15,VWS V14.01,2013-07-02 17:43:00,
2013-07-02 13:45:00,58.2,56.8,30.23,NNE,15,0.0,3.0,95,0.00,,SCT070,0.15,VWS V14.01,2013-07-02 17:45:00,
2013-07-02 13:48:00,58.2,56.8,30.23,NE,41,0.0,5.0,95,0.00,,,0.15,VWS V14.01,2013-07-02 17:48:00,
2013-07-02 13:50:00,58.2,56.8,30.23,NE,41,0.0,5.0,95,0.00,,SCT070,0.15,VWS V14.01,2013-07-02 17:50:00,
2013-07-02 13:53:00,58.3,56.9,30.23,East,79,0.0,1.0,95,0.00,,,0.15,VWS V14.01,2013-07-02 17:53:00,
2013-07-02 13:55:00,58.3,56.9,30.23,East,79,0.0,1.0,95,0.00,,SCT070,0.15,VWS V14.01,2013-07-02 17:55:00,
2013-07-02 13:58:00,58.3,56.9,30.23,NE,52,0.0,1.0,95,0.00,,-RA,0.15,VWS V14.01,2013-07-02 17:58:00,
2013-07-02 14:00:00,58.3,56.9,30.23,NE,52,0.0,1.0,95,0.00,,SCT070,0.15,VWS V14.01,2013-07-02 18:00:00,
2013-07-02 14:03:00,58.3,57.2,30.23,NE,56,0.0,1.0,96,0.00,,-RA,0.15,VWS V14.01,2013-07-02 18:03:00,
2013-07-02 14:05:00,58.3,57.2,30.23,NE,56,0.0,1.0,96,0.00,,SCT070,0.15,VWS V14.01,2013-07-02 18:05:00,
2013-07-02 14:08:00,58.3,57.2,30.23,East,79,0.0,1.0,96,0.00,,-RA,0.15,VWS V14.01,2013-07-02 18:08:00,
2013-07-02 14:10:00,58.3,57.2,30.23,East,79,0.0,1.0,96,0.00,,SCT070,0.15,VWS V14.01,2013-07-02 18:10:00,
2013-07-02 14:13:00,58.3,57.2,30.23,NE,34,0.0,1.0,96,0.00,,-RA,0.15,VWS V14.01,2013-07-02 18:13:00,
2013-07-02 14:15:00,58.3,57.2,30.23,NE,34,0.0,1.0,96,0.00,,SCT070,0.15,VWS V14.01,2013-07-02 18:15:00,
2013-07-02 14:18:00,58.3,57.5,30.23,East,101,0.0,4.0,97,0.00,,-RA,0.15,VWS V14.01,2013-07-02 18:18:00,
2013-07-02 14:20:00,58.3,57.5,30.23,East,79,0.0,4.0,97,0.00,,SCT070,0.15,VWS V14.01,2013-07-02 18:20:00,
2013-07-02 14:23:00,58.3,57.5,30.23,East,86,0.0,1.0,97,0.00,,-RA,0.15,VWS V14.01,2013-07-02 18:23:00,
2013-07-02 14:25:00,58.3,57.5,30.23,East,86,0.0,1.0,97,0.00,,SCT070,0.15,VWS V14.01,2013-07-02 18:25:00,
2013-07-02 14:28:00,58.3,57.5,30.23,ENE,76,0.0,2.0,97,0.00,,-RA,0.15,VWS V14.01,2013-07-02 18:28:00,
2013-07-02 14:30:00,58.3,57.5,30.23,ENE,74,0.0,2.0,97,0.00,,SCT070,0.15,VWS V14.01,2013-07-02 18:30:00,
2013-07-02 14:33:00,58.5,57.7,30.23,East,100,0.0,4.0,97,0.00,,-RA,0.15,VWS V14.01,2013-07-02 18:33:00,
2013-07-02 14:35:00,58.5,57.7,30.23,East,100,0.0,4.0,97,0.00,,SCT070,0.15,VWS V14.01,2013-07-02 18:35:00,
2013-07-02 14:38:00,58.6,57.8,30.23,ENE,59,0.0,5.0,97,0.00,,-RA,0.15,VWS V14.01,2013-07-02 18:38:00,
2013-07-02 14:40:00,58.6,57.8,30.23,ENE,59,0.0,5.0,97,0.00,,SCT070,0.15,VWS V14.01,2013-07-02 18:40:00,
2013-07-02 14:43:00,59.0,58.4,30.23,North,10,0.0,0.0,98,0.00,,-RA,0.15,VWS V14.01,2013-07-02 18:43:00,
2013-07-02 14:45:00,59.0,58.4,30.23,North,10,0.0,0.0,98,0.00,,SCT070,0.15,VWS V14.01,2013-07-02 18:45:00,
2013-07-02 14:48:00,59.0,58.2,30.23,NE,43,0.0,2.0,97,0.00,,-RA,0.15,VWS V14.01,2013-07-02 18:48:00,
2013-07-02 14:50:00,59.0,58.2,30.23,NNE,15,0.0,2.0,97,0.00,,SCT070,0.15,VWS V14.01,2013-07-02 18:50:00,
2013-07-02 14:53:00,59.0,58.2,30.23,ENE,69,0.0,0.0,97,0.00,,-RA,0.15,VWS V14.01,2013-07-02 18:53:00,
2013-07-02 14:55:00,59.0,58.2,30.23,ENE,69,0.0,0.0,97,0.00,,SCT070,0.15,VWS V14.01,2013-07-02 18:55:00,
2013-07-02 14:58:00,59.0,58.2,30.23,NE,50,0.0,0.0,97,0.00,,,0.15,VWS V14.01,2013-07-02 18:58:00,
2013-07-02 15:00:00,59.0,58.2,30.23,NE,50,0.0,0.0,97,0.00,,SCT070,0.15,VWS V14.01,2013-07-02 19:00:00,
2013-07-02 15:03:00,59.0,58.2,30.23,ENE,63,0.0,0.0,97,0.00,,,0.15,VWS V14.01,2013-07-02 19:03:00,
2013-07-02 15:05:00,59.0,58.2,30.23,ENE,63,0.0,0.0,97,0.00,,SCT070,0.15,VWS V14.01,2013-07-02 19:05:00,
2013-07-02 15:08:00,59.0,58.2,30.23,ENE,70,1.0,1.0,97,0.00,,,0.15,VWS V14.01,2013-07-02 19:08:00,
2013-07-02 15:10:00,59.0,58.2,30.23,ENE,70,0.0,1.0,97,0.00,,SCT070,0.15,VWS V14.01,2013-07-02 19:10:00,
2013-07-02 15:13:00,59.0,58.2,30.23,ENE,70,0.0,0.0,97,0.00,,,0.15,VWS V14.01,2013-07-02 19:13:00,
2013-07-02 15:15:00,59.0,58.2,30.23,ENE,70,0.0,0.0,97,0.00,,SCT070,0.15,VWS V14.01,2013-07-02 19:15:00,
2013-07-02 15:18:00,59.0,58.2,30.23,North,5,0.0,0.0,97,0.00,,,0.15,VWS V14.01,2013-07-02 19:18:00,
2013-07-02 15:20:00,59.0,58.2,30.23,North,5,0.0,0.0,97,0.00,,SCT070,0.15,VWS V14.01,2013-07-02 19:20:00,
2013-07-02 15:24:00,59.0,57.9,30.23,East,91,0.0,2.0,96,0.00,,,0.15,VWS V14.01,2013-07-02 19:24:00,
2013-07-02 15:25:00,59.0,57.9,30.23,East,91,0.0,2.0,96,0.00,,SCT070,0.15,VWS V14.01,2013-07-02 19:25:00,
2013-07-02 15:29:00,58.8,57.7,30.23,East,80,0.0,0.0,96,0.00,,,0.15,VWS V14.01,2013-07-02 19:29:00,
2013-07-02 15:30:00,58.8,57.7,30.23,East,80,0.0,0.0,96,0.00,,SCT070,0.15,VWS V14.01,2013-07-02 19:30:00,
2013-07-02 15:34:00,59.0,57.9,30.23,ENE,70,0.0,2.0,96,0.00,,,0.15,VWS V14.01,2013-07-02 19:34:00,
2013-07-02 15:35:00,59.0,57.9,30.23,ENE,70,0.0,2.0,96,0.00,,SCT070,0.15,VWS V14.01,2013-07-02 19:35:00,
2013-07-02 15:39:00,59.0,58.2,30.23,ESE,103,0.0,0.0,97,0.00,,,0.15,VWS V14.01,2013-07-02 19:39:00,
2013-07-02 15:40:00,59.0,58.2,30.23,ESE,104,0.0,0.0,97,0.00,,SCT070,0.15,VWS V14.01,2013-07-02 19:40:00,
2013-07-02 15:44:00,59.0,58.2,30.23,NE,46,0.0,2.0,97,0.00,,,0.15,VWS V14.01,2013-07-02 19:44:00,
2013-07-02 15:45:00,59.0,58.2,30.23,NE,46,0.0,2.0,97,0.00,,SCT070,0.15,VWS V14.01,2013-07-02 19:45:00,
2013-07-02 15:49:00,59.0,57.9,30.23,ENE,66,0.0,0.0,96,0.00,,,0.15,VWS V14.01,2013-07-02 19:49:00,
2013-07-02 15:50:00,59.0,57.9,30.23,NE,53,0.0,0.0,96,0.00,,SCT070,0.15,VWS V14.01,2013-07-02 19:50:00,
2013-07-02 15:54:00,59.1,58.0,30.23,NE,53,0.0,0.0,96,0.00,,,0.15,VWS V14.01,2013-07-02 19:54:00,
2013-07-02 15:55:00,59.1,58.0,30.23,NE,53,0.0,0.0,96,0.00,,SCT070,0.15,VWS V14.01,2013-07-02 19:55:00,
2013-07-02 15:59:00,59.3,58.2,30.22,ENE,62,0.0,0.0,96,0.00,,-RA,0.15,VWS V14.01,2013-07-02 19:59:00,
2013-07-02 16:00:00,59.3,58.2,30.22,ENE,62,0.0,0.0,96,0.00,,SCT070,0.15,VWS V14.01,2013-07-02 20:00:00,
2013-07-02 16:04:00,59.3,58.2,30.22,East,82,0.0,2.0,96,0.00,,-RA,0.15,VWS V14.01,2013-07-02 20:04:00,
2013-07-02 16:05:00,59.3,58.2,30.22,East,82,0.0,2.0,96,0.00,,SCT070,0.15,VWS V14.01,2013-07-02 20:05:00,
2013-07-02 16:09:00,59.1,58.0,30.22,NE,52,0.0,0.0,96,0.00,,,0.15,VWS V14.01,2013-07-02 20:09:00,
2013-07-02 16:10:00,59.1,58.0,30.22,NE,52,0.0,0.0,96,0.00,,SCT070,0.15,VWS V14.01,2013-07-02 20:10:00,
2013-07-02 16:14:00,59.0,57.9,30.21,NNE,29,0.0,6.0,96,0.00,,,0.15,VWS V14.01,2013-07-02 20:14:00,
2013-07-02 16:15:00,59.0,57.9,30.21,NNE,29,0.0,6.0,96,0.00,,SCT070,0.15,VWS V14.01,2013-07-02 20:15:00,
2013-07-02 16:19:00,59.0,57.9,30.21,NE,42,0.0,2.0,96,0.00,,,0.15,VWS V14.01,2013-07-02 20:19:00,
2013-07-02 16:20:00,59.0,57.9,30.21,NE,48,0.0,2.0,96,0.00,,SCT070,0.15,VWS V14.01,2013-07-02 20:20:00,
2013-07-02 16:24:00,59.0,58.2,30.21,NNE,17,0.0,1.0,97,0.00,,,0.15,VWS V14.01,2013-07-02 20:24:00,
2013-07-02 16:25:00,59.0,58.2,30.21,NNE,17,0.0,1.0,97,0.00,,SCT070,0.15,VWS V14.01,2013-07-02 20:25:00,
2013-07-02 16:29:00,59.0,58.2,30.22,ENE,76,0.0,0.0,97,0.01,,,0.16,VWS V14.01,2013-07-02 20:29:00,
2013-07-02 16:30:00,59.0,58.2,30.22,ENE,76,0.0,1.0,97,0.01,,SCT070,0.16,VWS V14.01,2013-07-02 20:30:00,
2013-07-02 16:34:00,59.0,58.2,30.22,East,80,0.0,0.0,97,0.01,,RA,0.16,VWS V14.01,2013-07-02 20:34:00,
2013-07-02 16:35:00,59.0,58.2,30.22,East,80,0.0,0.0,97,0.01,,SCT070,0.16,VWS V14.01,2013-07-02 20:35:00,
2013-07-02 16:39:00,59.1,58.2,30.22,ENE,65,0.0,0.0,97,0.01,,RA,0.16,VWS V14.01,2013-07-02 20:39:00,
2013-07-02 16:40:00,59.1,58.2,30.22,ENE,65,0.0,0.0,97,0.01,,SCT070,0.16,VWS V14.01,2013-07-02 20:40:00,
2013-07-02 16:44:00,59.1,58.5,30.22,ENE,65,0.0,0.0,98,0.01,,-RA,0.16,VWS V14.01,2013-07-02 20:44:00,
2013-07-02 16:45:00,59.1,58.5,30.22,ENE,65,0.0,0.0,98,0.01,,SCT070,0.16,VWS V14.01,2013-07-02 20:45:00,
2013-07-02 16:49:00,59.1,58.2,30.22,North,4,0.0,0.0,97,0.01,,-RA,0.16,VWS V14.01,2013-07-02 20:49:00,
2013-07-02 16:50:00,59.1,58.2,30.22,North,4,0.0,1.0,97,0.01,,SCT070,0.16,VWS V14.01,2013-07-02 20:50:00,
2013-07-02 16:54:00,59.1,58.5,30.22,East,79,0.0,0.0,98,0.01,,-RA,0.16,VWS V14.01,2013-07-02 20:54:00,
2013-07-02 16:55:00,59.1,58.5,30.22,East,79,0.0,1.0,98,0.01,,SCT070,0.16,VWS V14.01,2013-07-02 20:55:00,
2013-07-02 16:59:00,59.1,58.5,30.21,NNE,19,0.0,0.0,98,0.01,,,0.16,VWS V14.01,2013-07-02 20:59:00,
2013-07-02 17:00:00,59.1,58.5,30.21,NNE,18,0.0,3.0,98,0.01,,SCT070,0.16,VWS V14.01,2013-07-02 21:00:00,
2013-07-02 17:04:00,59.1,58.5,30.21,NE,45,0.0,0.0,98,0.01,,,0.16,VWS V14.01,2013-07-02 21:04:00,
2013-07-02 17:05:00,59.1,58.5,30.21,NE,45,0.0,0.0,98,0.01,,SCT070,0.16,VWS V14.01,2013-07-02 21:05:00,
2013-07-02 17:09:00,59.1,58.5,30.21,ENE,76,0.0,0.0,98,0.01,,OVC012,0.16,VWS V14.01,2013-07-02 21:09:00,
2013-07-02 17:10:00,59.1,58.5,30.21,East,80,0.0,2.0,98,0.01,,SCT070,0.16,VWS V14.01,2013-07-02 21:10:00,
2013-07-02 17:14:00,59.1,58.5,30.21,NE,48,0.0,0.0,98,0.01,,OVC012,0.16,VWS V14.01,2013-07-02 21:14:00,
2013-07-02 17:15:00,59.1,58.5,30.21,NE,48,0.0,0.0,98,0.01,,SCT070,0.16,VWS V14.01,2013-07-02 21:15:00,
2013-07-02 17:19:00,59.3,58.7,30.21,NE,46,0.0,0.0,98,0.01,,OVC012,0.16,VWS V14.01,2013-07-02 21:19:00,
2013-07-02 17:20:00,59.3,58.7,30.21,NE,46,0.0,0.0,98,0.01,,SCT070,0.16,VWS V14.01,2013-07-02 21:20:00,
2013-07-02 17:24:00,59.4,58.8,30.21,NE,46,0.0,0.0,98,0.01,,OVC016,0.16,VWS V14.01,2013-07-02 21:24:00,
2013-07-02 17:25:00,59.4,58.8,30.21,NE,46,0.0,0.0,98,0.01,,SCT070,0.16,VWS V14.01,2013-07-02 21:25:00,
2013-07-02 17:29:00,59.4,58.8,30.21,East,84,0.0,0.0,98,0.00,,OVC016,0.16,VWS V14.01,2013-07-02 21:29:00,
2013-07-02 17:30:00,59.4,58.8,30.21,East,84,0.0,0.0,98,0.01,,SCT070,0.16,VWS V14.01,2013-07-02 21:30:00,
2013-07-02 17:34:00,59.4,58.8,30.21,ENE,62,0.0,0.0,98,0.00,,OVC016,0.16,VWS V14.01,2013-07-02 21:34:00,
2013-07-02 17:35:00,59.4,58.8,30.21,ENE,62,0.0,0.0,98,0.00,,SCT070,0.16,VWS V14.01,2013-07-02 21:35:00,
2013-07-02 17:39:00,59.4,58.8,30.21,ENE,62,0.0,0.0,98,0.00,,OVC016,0.16,VWS V14.01,2013-07-02 21:39:00,
2013-07-02 17:40:00,59.4,58.8,30.21,ENE,62,0.0,0.0,98,0.00,,SCT070,0.16,VWS V14.01,2013-07-02 21:40:00,
2013-07-02 17:44:00,59.4,58.8,30.21,ENE,73,0.0,0.0,98,0.00,,OVC016,0.16,VWS V14.01,2013-07-02 21:44:00,
2013-07-02 17:45:00,59.4,58.8,30.21,ENE,73,0.0,0.0,98,0.00,,SCT070,0.16,VWS V14.01,2013-07-02 21:45:00,
2013-07-02 17:49:00,59.3,58.7,30.21,NNE,24,0.0,0.0,98,0.00,,OVC016,0.16,VWS V14.01,2013-07-02 21:49:00,
2013-07-02 17:50:00,59.3,58.7,30.21,NNE,24,0.0,2.0,98,0.00,,SCT070,0.16,VWS V14.01,2013-07-02 21:50:00,
2013-07-02 17:54:00,59.4,58.8,30.21,NNE,24,0.0,0.0,98,0.00,,OVC016,0.16,VWS V14.01,2013-07-02 21:54:00,
2013-07-02 17:55:00,59.4,58.8,30.21,NNE,24,0.0,0.0,98,0.00,,SCT070,0.16,VWS V14.01,2013-07-02 21:55:00,
2013-07-02 17:59:00,59.4,58.8,30.21,ENE,73,0.0,0.0,98,0.00,,OVC015,0.16,VWS V14.01,2013-07-02 21:59:00,
2013-07-02 18:00:00,59.4,58.8,30.21,ENE,76,0.0,0.0,98,0.00,,SCT070,0.16,VWS V14.01,2013-07-02 22:00:00,
2013-07-02 18:04:00,59.4,58.8,30.21,ENE,76,0.0,0.0,98,0.00,,OVC015,0.16,VWS V14.01,2013-07-02 22:04:00,
2013-07-02 18:05:00,59.4,58.8,30.21,East,101,0.0,1.0,98,0.00,,SCT070,0.16,VWS V14.01,2013-07-02 22:05:00,
2013-07-02 18:09:00,59.4,58.8,30.21,NE,36,1.0,1.0,98,0.00,,OVC015,0.16,VWS V14.01,2013-07-02 22:09:00,
2013-07-02 18:10:00,59.4,58.8,30.21,East,89,0.0,0.0,98,0.00,,SCT070,0.16,VWS V14.01,2013-07-02 22:10:00,
2013-07-02 18:14:00,59.4,58.8,30.21,East,93,0.0,0.0,98,0.00,,OVC015,0.16,VWS V14.01,2013-07-02 22:14:00,
2013-07-02 18:15:00,59.4,58.8,30.21,East,93,0.0,1.0,98,0.00,,SCT070,0.16,VWS V14.01,2013-07-02 22:15:00,
2013-07-02 18:19:00,59.6,59.0,30.21,ENE,69,0.0,0.0,98,0.00,,OVC015,0.16,VWS V14.01,2013-07-02 22:19:00,
2013-07-02 18:20:00,59.6,59.0,30.21,ENE,69,0.0,1.0,98,0.00,,SCT070,0.16,VWS V14.01,2013-07-02 22:20:00,
2013-07-02 18:24:00,59.6,59.0,30.21,ENE,58,0.0,0.0,98,0.00,,OVC015,0.16,VWS V14.01,2013-07-02 22:24:00,
2013-07-02 18:25:00,59.6,58.8,30.21,ENE,58,0.0,1.0,97,0.00,,SCT070,0.16,VWS V14.01,2013-07-02 22:25:00,
2013-07-02 18:29:00,59.6,59.0,30.21,ENE,65,0.0,0.0,98,0.00,,OVC015,0.16,VWS V14.01,2013-07-02 22:29:00,
2013-07-02 18:30:00,59.6,59.0,30.21,ENE,65,0.0,0.0,98,0.00,,SCT070,0.16,VWS V14.01,2013-07-02 22:30:00,
2013-07-02 18:34:00,59.6,58.8,30.21,East,97,0.0,0.0,97,0.00,,OVC017,0.16,VWS V14.01,2013-07-02 22:34:00,
2013-07-02 18:35:00,59.7,58.8,30.21,East,97,0.0,1.0,97,0.00,,SCT070,0.16,VWS V14.01,2013-07-02 22:35:00,
2013-07-02 18:39:00,59.4,58.5,30.21,ENE,66,0.0,0.0,97,0.00,,OVC017,0.16,VWS V14.01,2013-07-02 22:39:00,
2013-07-02 18:40:00,59.4,58.5,30.21,ENE,66,0.0,0.0,97,0.00,,SCT070,0.16,VWS V14.01,2013-07-02 22:40:00,
2013-07-02 18:44:00,59.4,58.5,30.21,NNE,21,0.0,0.0,97,0.00,,OVC017,0.16,VWS V14.01,2013-07-02 22:44:00,
2013-07-02 18:45:00,59.4,58.5,30.21,North,8,0.0,1.0,97,0.00,,SCT070,0.16,VWS V14.01,2013-07-02 22:45:00,
2013-07-02 18:49:00,59.4,58.5,30.21,NNE,24,0.0,0.0,97,0.00,,OVC017,0.16,VWS V14.01,2013-07-02 22:49:00,
2013-07-02 18:50:00,59.4,58.5,30.21,NNE,24,0.0,0.0,97,0.00,,SCT070,0.16,VWS V14.01,2013-07-02 22:50:00,
2013-07-02 18:54:00,59.3,58.5,30.21,NE,49,0.0,0.0,97,0.00,,OVC017,0.16,VWS V14.01,2013-07-02 22:54:00,
2013-07-02 18:55:00,59.3,58.5,30.21,NE,49,0.0,1.0,97,0.00,,SCT070,0.16,VWS V14.01,2013-07-02 22:55:00,
2013-07-02 18:59:00,59.3,58.5,30.21,East,91,0.0,0.0,97,0.00,,OVC012,0.16,VWS V14.01,2013-07-02 22:59:00,
2013-07-02 19:00:00,59.3,58.2,30.21,East,91,0.0,1.0,96,0.00,,SCT070,0.16,VWS V14.01,2013-07-02 23:00:00,
2013-07-02 19:04:00,59.1,58.0,30.21,ENE,66,0.0,0.0,96,0.00,,OVC012,0.16,VWS V14.01,2013-07-02 23:04:00,
2013-07-02 19:05:00,59.1,58.0,30.21,ENE,66,0.0,1.0,96,0.00,,SCT070,0.16,VWS V14.01,2013-07-02 23:05:00,
2013-07-02 19:09:00,59.1,58.0,30.21,East,87,0.0,0.0,96,0.00,,OVC012,0.16,VWS V14.01,2013-07-02 23:09:00,
2013-07-02 19:10:00,59.1,58.0,30.21,East,87,0.0,0.0,96,0.00,,SCT070,0.16,VWS V14.01,2013-07-02 23:10:00,
2013-07-02 19:14:00,59.1,58.0,30.22,East,82,0.0,0.0,96,0.00,,OVC012,0.16,VWS V14.01,2013-07-02 23:14:00,
2013-07-02 19:15:00,59.1,58.0,30.22,East,86,0.0,0.0,96,0.00,,SCT070,0.16,VWS V14.01,2013-07-02 23:15:00,
2013-07-02 19:19:00,59.0,57.9,30.22,NNE,31,0.0,0.0,96,0.00,,OVC012,0.16,VWS V14.01,2013-07-02 23:19:00,
2013-07-02 19:20:00,59.0,57.9,30.22,NNE,31,0.0,1.0,96,0.00,,SCT070,0.16,VWS V14.01,2013-07-02 23:20:00,
2013-07-02 19:24:00,59.0,57.9,30.22,NE,48,0.0,0.0,96,0.00,,OVC012,0.16,VWS V14.01,2013-07-02 23:24:00,
2013-07-02 19:25:00,59.0,57.9,30.22,NE,48,0.0,1.0,96,0.00,,SCT070,0.16,VWS V14.01,2013-07-02 23:25:00,
2013-07-02 19:29:00,58.8,57.7,30.22,NE,56,0.0,0.0,96,0.00,,OVC012,0.16,VWS V14.01,2013-07-02 23:29:00,
2013-07-02 19:30:00,58.8,57.7,30.22,NE,49,0.0,0.0,96,0.00,,SCT070,0.16,VWS V14.01,2013-07-02 23:30:00,
2013-07-02 19:34:00,58.6,57.5,30.22,NNE,15,0.0,0.0,96,0.00,,OVC012,0.16,VWS V14.01,2013-07-02 23:34:00,
2013-07-02 19:35:00,58.6,57.5,30.22,East,89,0.0,7.0,96,0.00,,SCT070,0.16,VWS V14.01,2013-07-02 23:35:00,
2013-07-02 19:39:00,58.6,57.5,30.22,NNE,29,0.0,0.0,96,0.00,,OVC012,0.16,VWS V14.01,2013-07-02 23:39:00,
2013-07-02 19:40:00,58.6,57.5,30.22,NNE,29,0.0,2.0,96,0.00,,SCT070,0.16,VWS V14.01,2013-07-02 23:40:00,
2013-07-02 19:44:00,58.5,57.4,30.21,ENE,60,0.0,0.0,96,0.00,,OVC012,0.16,VWS V14.01,2013-07-02 23:44:00,
2013-07-02 19:45:00,58.5,57.4,30.21,ENE,60,0.0,3.0,96,0.00,,SCT070,0.16,VWS V14.01,2013-07-02 23:45:00,
2013-07-02 19:49:00,58.5,57.4,30.21,ENE,72,0.0,0.0,96,0.00,,OVC012,0.16,VWS V14.01,2013-07-02 23:49:00,
2013-07-02 19:50:00,58.5,57.4,30.21,ENE,72,0.0,0.0,96,0.00,,SCT070,0.16,VWS V14.01,2013-07-02 23:50:00,
2013-07-02 19:54:00,58.3,57.5,30.21,ENE,63,0.0,0.0,97,0.00,,OVC012,0.16,VWS V14.01,2013-07-02 23:54:00,
2013-07-02 19:55:00,58.3,57.5,30.21,East,80,0.0,2.0,97,0.00,,SCT070,0.16,VWS V14.01,2013-07-02 23:55:00,
2013-07-02 19:59:00,58.2,57.4,30.22,NE,56,0.0,0.0,97,0.00,,,0.16,VWS V14.01,2013-07-02 23:59:00,
2013-07-02 20:00:00,58.3,57.5,30.22,NE,56,0.0,3.0,97,0.00,,SCT070,0.16,VWS V14.01,2013-07-03 00:00:00,
2013-07-02 20:01:00,58.2,57.4,30.22,ESE,110,0.0,3.0,97,0.00,,,0.16,VWS V14.01,2013-07-03 00:01:00,
2013-07-02 20:05:00,58.2,57.4,30.22,NE,55,0.0,3.0,97,0.00,,SCT070,0.16,VWS V14.01,2013-07-03 00:05:00,
2013-07-02 20:06:00,58.0,57.2,30.22,ENE,58,0.0,0.0,97,0.00,,,0.16,VWS V14.01,2013-07-03 00:06:00,
2013-07-02 20:10:00,58.0,57.2,30.22,ENE,59,0.0,0.0,97,0.00,,SCT070,0.16,VWS V14.01,2013-07-03 00:10:00,
2013-07-02 20:11:00,58.0,57.2,30.22,NE,52,0.0,0.0,97,0.00,,,0.16,VWS V14.01,2013-07-03 00:11:00,
2013-07-02 20:15:00,57.9,57.1,30.22,NE,48,0.0,3.0,97,0.00,,SCT070,0.16,VWS V14.01,2013-07-03 00:15:00,
2013-07-02 20:16:00,57.9,57.1,30.22,NE,39,0.0,0.0,97,0.00,,,0.16,VWS V14.01,2013-07-03 00:16:00,
2013-07-02 20:20:00,57.9,57.1,30.22,NE,39,0.0,0.0,97,0.00,,SCT070,0.16,VWS V14.01,2013-07-03 00:20:00,
2013-07-02 20:21:00,57.9,57.1,30.22,NE,39,0.0,0.0,97,0.00,,,0.16,VWS V14.01,2013-07-03 00:21:00,
2013-07-02 20:23:00,57.9,57.1,30.22,NE,39,0.0,0.0,97,0.00,,,0.16,VWS V14.01,2013-07-03 00:23:00,
2013-07-02 20:24:00,57.9,57.1,30.22,NE,39,0.0,1.0,97,0.00,,,0.16,VWS V14.01,2013-07-03 00:24:00,
2013-07-02 20:25:00,57.9,57.1,30.22,NE,39,0.0,0.0,97,0.00,,SCT070,0.16,VWS V14.01,2013-07-03 00:25:00,
2013-07-02 20:28:00,57.7,56.9,30.23,WSW,241,0.0,1.0,97,0.00,,,0.16,VWS V14.01,2013-07-03 00:28:00,
2013-07-02 20:30:00,57.7,56.9,30.23,WSW,241,0.0,1.0,97,0.00,,SCT070,0.16,VWS V14.01,2013-07-03 00:30:00,
2013-07-02 20:33:00,57.7,57.1,30.23,WSW,241,0.0,0.0,98,0.00,,,0.16,VWS V14.01,2013-07-03 00:33:00,
2013-07-02 20:35:00,57.7,57.1,30.23,WSW,241,0.0,0.0,98,0.00,,SCT070,0.16,VWS V14.01,2013-07-03 00:35:00,
2013-07-02 20:38:00,57.7,57.1,30.23,WSW,242,0.0,0.0,98,0.00,,,0.16,VWS V14.01,2013-07-03 00:38:00,
2013-07-02 20:40:00,57.6,57.0,30.23,WSW,242,0.0,0.0,98,0.00,,SCT070,0.16,VWS V14.01,2013-07-03 00:40:00,
2013-07-02 20:43:00,57.6,57.0,30.23,WSW,242,0.0,0.0,98,0.00,,,0.16,VWS V14.01,2013-07-03 00:43:00,
2013-07-02 20:45:00,57.6,57.0,30.23,WSW,242,0.0,0.0,98,0.00,,SCT070,0.16,VWS V14.01,2013-07-03 00:45:00,
2013-07-02 20:48:00,57.6,57.0,30.23,WSW,242,0.0,0.0,98,0.00,,,0.16,VWS V14.01,2013-07-03 00:48:00,
2013-07-02 20:50:00,57.6,57.0,30.23,WSW,242,0.0,0.0,98,0.00,,SCT070,0.16,VWS V14.01,2013-07-03 00:50:00,
2013-07-02 20:53:00,57.6,57.0,30.23,WSW,242,0.0,0.0,98,0.00,,,0.16,VWS V14.01,2013-07-03 00:53:00,
2013-07-02 20:55:00,57.6,57.0,30.23,WNW,282,0.0,0.0,98,0.00,,SCT070,0.16,VWS V14.01,2013-07-03 00:55:00,
2013-07-02 20:58:00,57.6,57.0,30.23,WNW,285,0.0,0.0,98,0.00,,,0.16,VWS V14.01,2013-07-03 00:58:00,
2013-07-02 21:00:00,57.6,57.0,30.23,WNW,285,0.0,0.0,98,0.00,,,0.16,VWS V14.01,2013-07-03 01:00:00,
2013-07-02 21:03:00,57.4,56.8,30.23,WNW,285,0.0,0.0,98,0.00,,,0.16,VWS V14.01,2013-07-03 01:03:00,
2013-07-02 21:05:00,57.4,56.8,30.23,WNW,285,0.0,0.0,98,0.00,,SCT070,0.16,VWS V14.01,2013-07-03 01:05:00,
2013-07-02 21:08:00,57.4,56.8,30.23,WNW,285,0.0,0.0,98,0.00,,,0.16,VWS V14.01,2013-07-03 01:08:00,
2013-07-02 21:09:00,57.4,56.8,30.23,WNW,285,0.0,0.0,98,0.00,,,0.16,VWS V14.01,2013-07-03 01:09:00,
2013-07-02 21:10:00,57.4,56.8,30.23,WNW,285,0.0,0.0,98,0.00,,SCT070,0.16,VWS V14.01,2013-07-03 01:10:00,
2013-07-02 21:14:00,57.4,56.8,30.24,WNW,285,0.0,0.0,98,0.00,,,0.16,VWS V14.01,2013-07-03 01:14:00,
2013-07-02 21:15:00,57.4,56.8,30.24,WNW,285,0.0,0.0,98,0.00,,SCT070,0.16,VWS V14.01,2013-07-03 01:15:00,
2013-07-02 21:19:00,57.4,56.8,30.24,WNW,286,0.0,0.0,98,0.00,,,0.16,VWS V14.01,2013-07-03 01:19:00,
2013-07-02 21:20:00,57.4,56.8,30.24,WNW,286,0.0,0.0,98,0.00,,SCT070,0.16,VWS V14.01,2013-07-03 01:20:00,
2013-07-02 21:24:00,57.4,56.8,30.24,WNW,286,0.0,0.0,98,0.00,,,0.16,VWS V14.01,2013-07-03 01:24:00,
2013-07-02 21:25:00,57.4,56.8,30.24,WNW,286,0.0,0.0,98,0.00,,SCT070,0.16,VWS V14.01,2013-07-03 01:25:00,
2013-07-02 21:27:00,57.4,56.8,30.24,WNW,286,0.0,0.0,98,0.00,,,0.16,VWS V14.01,2013-07-03 01:27:00,
2013-07-02 21:30:00,57.4,56.8,30.23,WNW,286,0.0,0.0,98,0.00,,SCT070,0.16,VWS V14.01,2013-07-03 01:30:00,
2013-07-02 21:32:00,57.4,56.8,30.23,WNW,286,0.0,1.0,98,0.00,,,0.16,VWS V14.01,2013-07-03 01:32:00,
2013-07-02 21:35:00,57.4,56.8,30.23,WNW,286,0.0,1.0,98,0.00,,SCT070,0.16,VWS V14.01,2013-07-03 01:35:00,
2013-07-02 21:37:00,57.3,56.7,30.23,WNW,286,0.0,0.0,98,0.00,,,0.16,VWS V14.01,2013-07-03 01:37:00,
2013-07-02 21:40:00,57.3,56.7,30.23,WNW,286,0.0,0.0,98,0.00,,SCT070,0.16,VWS V14.01,2013-07-03 01:40:00,
2013-07-02 21:42:00,57.3,56.7,30.23,WNW,286,0.0,0.0,98,0.00,,,0.16,VWS V14.01,2013-07-03 01:42:00,
2013-07-02 21:45:00,57.3,56.7,30.24,WNW,286,0.0,0.0,98,0.00,,SCT070,0.16,VWS V14.01,2013-07-03 01:45:00,
2013-07-02 21:47:00,57.3,56.7,30.24,WNW,286,0.0,0.0,98,0.00,,,0.16,VWS V14.01,2013-07-03 01:47:00,
2013-07-02 21:49:00,57.3,56.7,30.24,WNW,286,0.0,0.0,98,0.00,,,0.16,VWS V14.01,2013-07-03 01:49:00,
2013-07-02 21:50:00,57.3,56.7,30.24,WNW,286,0.0,0.0,98,0.00,,,0.16,VWS V14.01,2013-07-03 01:50:00,
2013-07-02 21:55:00,57.3,56.7,30.24,WNW,286,0.0,0.0,98,0.00,,,0.16,VWS V14.01,2013-07-03 01:55:00,
2013-07-02 22:00:00,57.3,56.7,30.23,WNW,286,0.0,0.0,98,0.00,,SCT070,0.16,VWS V14.01,2013-07-03 02:00:00,
2013-07-02 22:01:00,57.3,56.7,30.23,WNW,286,0.0,0.0,98,0.00,,,0.16,VWS V14.01,2013-07-03 02:01:00,
2013-07-02 22:05:00,57.1,56.5,30.23,WNW,286,0.0,0.0,98,0.00,,SCT070,0.16,VWS V14.01,2013-07-03 02:05:00,
2013-07-02 22:06:00,57.1,56.5,30.23,WNW,286,0.0,0.0,98,0.00,,,0.16,VWS V14.01,2013-07-03 02:06:00,
2013-07-02 22:10:00,57.3,56.7,30.23,WNW,286,0.0,0.0,98,0.00,,SCT070,0.16,VWS V14.01,2013-07-03 02:10:00,
2013-07-02 22:11:00,57.1,56.5,30.23,WNW,286,0.0,0.0,98,0.00,,,0.16,VWS V14.01,2013-07-03 02:11:00,
2013-07-02 22:15:00,57.1,56.5,30.23,WNW,286,0.0,0.0,98,0.00,,SCT070,0.16,VWS V14.01,2013-07-03 02:15:00,
2013-07-02 22:16:00,57.1,56.5,30.23,WNW,286,0.0,0.0,98,0.00,,,0.16,VWS V14.01,2013-07-03 02:16:00,
2013-07-02 22:20:00,57.1,56.5,30.23,WNW,286,0.0,0.0,98,0.00,,SCT070,0.16,VWS V14.01,2013-07-03 02:20:00,
2013-07-02 22:21:00,57.1,56.5,30.23,WNW,286,0.0,0.0,98,0.00,,,0.16,VWS V14.01,2013-07-03 02:21:00,
2013-07-02 22:25:00,57.3,56.7,30.23,WNW,286,0.0,0.0,98,0.00,,SCT070,0.16,VWS V14.01,2013-07-03 02:25:00,
2013-07-02 22:26:00,57.3,56.7,30.23,WNW,286,0.0,0.0,98,0.00,,,0.16,VWS V14.01,2013-07-03 02:26:00,
2013-07-02 22:30:00,57.3,56.7,30.23,WNW,286,0.0,0.0,98,0.00,,SCT070,0.16,VWS V14.01,2013-07-03 02:30:00,
2013-07-02 22:31:00,57.1,56.5,30.23,WNW,286,0.0,0.0,98,0.00,,,0.16,VWS V14.01,2013-07-03 02:31:00,
2013-07-02 22:32:00,57.1,56.5,30.23,WNW,286,0.0,0.0,98,0.00,,,0.16,VWS V14.01,2013-07-03 02:32:00,
2013-07-02 22:35:00,57.1,56.5,30.23,WNW,286,0.0,0.0,98,0.00,,SCT070,0.16,VWS V14.01,2013-07-03 02:35:00,
2013-07-02 22:37:00,57.3,56.7,30.23,WNW,286,0.0,0.0,98,0.00,,,0.16,VWS V14.01,2013-07-03 02:37:00,
2013-07-02 22:40:00,57.3,56.7,30.23,WNW,286,0.0,0.0,98,0.00,,SCT070,0.16,VWS V14.01,2013-07-03 02:40:00,
2013-07-02 22:42:00,57.3,56.7,30.23,WNW,286,0.0,0.0,98,0.00,,,0.16,VWS V14.01,2013-07-03 02:42:00,
2013-07-02 22:45:00,57.3,56.7,30.23,WNW,286,0.0,0.0,98,0.00,,SCT070,0.16,VWS V14.01,2013-07-03 02:45:00,
2013-07-02 22:47:00,57.3,56.7,30.23,WNW,286,0.0,0.0,98,0.00,,,0.16,VWS V14.01,2013-07-03 02:47:00,
2013-07-02 22:50:00,57.3,56.7,30.23,WNW,286,0.0,0.0,98,0.00,,SCT070,0.16,VWS V14.01,2013-07-03 02:50:00,
2013-07-02 22:52:00,57.3,56.7,30.23,WNW,286,0.0,0.0,98,0.00,,,0.16,VWS V14.01,2013-07-03 02:52:00,
2013-07-02 22:55:00,57.3,56.7,30.23,WNW,286,0.0,0.0,98,0.00,,SCT070,0.16,VWS V14.01,2013-07-03 02:55:00,
2013-07-02 22:57:00,57.3,56.5,30.23,WNW,286,0.0,0.0,97,0.00,,,0.16,VWS V14.01,2013-07-03 02:57:00,
2013-07-02 23:00:00,57.3,56.7,30.22,WNW,286,0.0,0.0,98,0.00,,SCT070,0.16,VWS V14.01,2013-07-03 03:00:00,
2013-07-02 23:02:00,57.3,56.7,30.22,WNW,286,0.0,0.0,98,0.00,,-RA,0.16,VWS V14.01,2013-07-03 03:02:00,
2013-07-02 23:05:00,57.3,56.5,30.22,WNW,286,0.0,0.0,97,0.00,,SCT070,0.16,VWS V14.01,2013-07-03 03:05:00,
2013-07-02 23:07:00,57.3,56.5,30.22,WNW,286,0.0,0.0,97,0.00,,-RA,0.16,VWS V14.01,2013-07-03 03:07:00,
2013-07-02 23:10:00,57.3,56.7,30.22,WNW,286,0.0,0.0,98,0.00,,SCT070,0.16,VWS V14.01,2013-07-03 03:10:00,
2013-07-02 23:12:00,57.3,56.7,30.22,WNW,286,0.0,0.0,98,0.00,,-RA,0.16,VWS V14.01,2013-07-03 03:12:00,
2013-07-02 23:15:00,57.3,56.5,30.21,WNW,286,0.0,0.0,97,0.00,,SCT070,0.16,VWS V14.01,2013-07-03 03:15:00,
2013-07-02 23:18:00,57.3,56.7,30.21,WNW,286,0.0,0.0,98,0.00,,-RA,0.16,VWS V14.01,2013-07-03 03:18:00,
2013-07-02 23:20:00,57.3,56.7,30.21,WNW,286,0.0,0.0,98,0.00,,-RA,0.16,VWS V14.01,2013-07-03 03:20:00,
2013-07-02 23:25:00,57.3,56.7,30.21,WNW,286,0.0,0.0,98,0.00,,-RA,0.16,VWS V14.01,2013-07-03 03:25:00,
2013-07-02 23:30:00,57.4,56.8,30.21,WNW,286,0.0,0.0,98,0.00,,-RA,0.16,VWS V14.01,2013-07-03 03:30:00,
2013-07-02 23:35:00,57.4,56.6,30.21,WNW,286,0.0,0.0,97,0.00,,-RA,0.16,VWS V14.01,2013-07-03 03:35:00,
2013-07-02 23:39:00,57.3,56.7,30.21,WNW,286,0.0,0.0,98,0.00,,-RA,0.16,VWS V14.01,2013-07-03 03:39:00,
2013-07-02 23:40:00,57.3,56.7,30.21,WNW,286,0.0,0.0,98,0.00,,SCT070,0.16,VWS V14.01,2013-07-03 03:40:00,
2013-07-02 23:44:00,57.3,56.7,30.21,WNW,286,0.0,0.0,98,0.00,,-RA,0.16,VWS V14.01,2013-07-03 03:44:00,
2013-07-02 23:45:00,57.3,56.7,30.21,WNW,286,0.0,0.0,98,0.00,,SCT070,0.16,VWS V14.01,2013-07-03 03:45:00,
2013-07-02 23:49:00,57.3,56.5,30.21,WNW,286,0.0,0.0,97,0.00,,-RA,0.16,VWS V14.01,2013-07-03 03:49:00,
2013-07-02 23:50:00,57.3,56.5,30.21,WNW,286,0.0,0.0,97,0.00,,SCT070,0.16,VWS V14.01,2013-07-03 03:50:00,
2013-07-02 23:54:00,57.3,56.5,30.21,WNW,286,0.0,0.0,97,0.00,,-RA,0.16,VWS V14.01,2013-07-03 03:54:00,
2013-07-02 23:55:00,57.3,56.5,30.21,WNW,286,0.0,0.0,97,0.00,,SCT070,0.16,VWS V14.01,2013-07-03 03:55:00,
2013-07-02 23:59:00,57.3,56.5,30.20,WNW,286,0.0,0.0,97,0.00,,-RA,0.16,VWS V14.01,2013-07-03 03:59:00,